Observation data for Odell on 11/19/2019      Previous  Date  Next       Current Mesonet Observations  Soil Data  Daily Summary Page  Observations in Plain Language
KOD1 190600Z 24003KT 09/03 A2993 RMK A01 T00920027  RH  064%=      5-min Rain = 0
KOD1 190601Z 24003KT 09/03 A2993 RMK A01 T00910027  RH  064%=      5-min Rain = 0
KOD1 190602Z 25003KT 09/03 A2993 RMK A01 T00900026  RH  064%=      5-min Rain = 0
KOD1 190603Z 25003KT 09/03 A2993 RMK A01 T00890027  RH  065%=      5-min Rain = 0
KOD1 190604Z 25004KT 09/03 A2993 RMK A01 T00880027  RH  065%=      5-min Rain = 0
KOD1 190605Z 25004KT 09/03 A2993 RMK A01 T00880027  RH  066%=      5-min Rain = 0
KOD1 190606Z 25004KT 09/03 A2993 RMK A01 T00870027  RH  066%=      5-min Rain = 0
KOD1 190607Z 25003KT 08/03 A2993 RMK A01 T00840026  RH  067%=      5-min Rain = 0
KOD1 190608Z 25003KT 08/03 A2993 RMK A01 T00820026  RH  068%=      5-min Rain = 0
KOD1 190609Z 27003KT 08/03 A2993 RMK A01 T00800025  RH  068%=      5-min Rain = 0
KOD1 190610Z 27003KT 08/03 A2993 RMK A01 T00790026  RH  069%=      5-min Rain = 0
KOD1 190611Z 27002KT 08/03 A2993 RMK A01 T00790027  RH  069%=      5-min Rain = 0
KOD1 190612Z 27003KT 08/03 A2993 RMK A01 T00800027  RH  069%=      5-min Rain = 0
KOD1 190613Z 27003KT 08/03 A2993 RMK A01 T00800026  RH  069%=      5-min Rain = 0
KOD1 190614Z 26003KT 08/03 A2993 RMK A01 T00800026  RH  069%=      5-min Rain = 0
KOD1 190615Z 27003KT 08/03 A2993 RMK A01 T00800026  RH  069%=      5-min Rain = 0
KOD1 190616Z 27003KT 08/03 A2993 RMK A01 T00820027  RH  068%=      5-min Rain = 0
KOD1 190617Z 27003KT 08/03 A2993 RMK A01 T00830026  RH  067%=      5-min Rain = 0
KOD1 190618Z 28003KT 08/03 A2993 RMK A01 T00840025  RH  067%=      5-min Rain = 0
KOD1 190619Z 29003KT 08/03 A2993 RMK A01 T00830025  RH  067%=      5-min Rain = 0
KOD1 190620Z 30003KT 08/03 A2993 RMK A01 T00830025  RH  067%=      5-min Rain = 0
KOD1 190621Z 30002KT 08/03 A2992 RMK A01 T00840025  RH  067%=      5-min Rain = 0
KOD1 190622Z 31002KT 09/03 A2992 RMK A01 T00850025  RH  066%=      5-min Rain = 0
KOD1 190623Z 31002KT 09/03 A2992 RMK A01 T00850025  RH  066%=      5-min Rain = 0
KOD1 190624Z 31002KT 09/03 A2992 RMK A01 T00850025  RH  066%=      5-min Rain = 0
KOD1 190625Z 31002KT 09/02 A2992 RMK A01 T00850024  RH  066%=      5-min Rain = 0
KOD1 190626Z 31002KT 09/03 A2992 RMK A01 T00850025  RH  066%=      5-min Rain = 0
KOD1 190627Z 31001KT 08/02 A2992 RMK A01 T00840024  RH  066%=      5-min Rain = 0
KOD1 190628Z 31001KT 08/02 A2992 RMK A01 T00840024  RH  066%=      5-min Rain = 0
KOD1 190629Z 30001KT 08/02 A2992 RMK A01 T00840024  RH  066%=      5-min Rain = 0
KOD1 190630Z 30001KT 08/02 A2993 RMK A01 T00830024  RH  066%=      5-min Rain = 0
KOD1 190631Z 30001KT 08/02 A2993 RMK A01 T00830024  RH  066%=      5-min Rain = 0
KOD1 190632Z 29002KT 08/02 A2993 RMK A01 T00820024  RH  067%=      5-min Rain = 0
KOD1 190633Z 29002KT 08/02 A2993 RMK A01 T00820024  RH  067%=      5-min Rain = 0
KOD1 190634Z 29002KT 08/02 A2993 RMK A01 T00820024  RH  067%=      5-min Rain = 0
KOD1 190635Z 29002KT 08/02 A2993 RMK A01 T00820024  RH  067%=      5-min Rain = 0
KOD1 190636Z 28002KT 08/02 A2993 RMK A01 T00820023  RH  067%=      5-min Rain = 0
KOD1 190637Z 27002KT 08/02 A2993 RMK A01 T00800022  RH  067%=      5-min Rain = 0
KOD1 190638Z 27002KT 08/02 A2993 RMK A01 T00800024  RH  068%=      5-min Rain = 0
KOD1 190639Z 27003KT 08/02 A2993 RMK A01 T00790024  RH  068%=      5-min Rain = 0
KOD1 190640Z 26002KT 08/02 A2993 RMK A01 T00790024  RH  068%=      5-min Rain = 0
KOD1 190641Z 27002KT 08/02 A2993 RMK A01 T00770023  RH  069%=      5-min Rain = 0
KOD1 190642Z 28002KT 08/02 A2993 RMK A01 T00760023  RH  069%=      5-min Rain = 0
KOD1 190643Z 30002KT 08/02 A2992 RMK A01 T00750023  RH  070%=      5-min Rain = 0
KOD1 190644Z 31001KT 07/02 A2992 RMK A01 T00740023  RH  070%=      5-min Rain = 0
KOD1 190645Z 31001KT 07/02 A2992 RMK A01 T00730023  RH  071%=      5-min Rain = 0
KOD1 190646Z 31001KT 07/02 A2992 RMK A01 T00710023  RH  071%=      5-min Rain = 0
KOD1 190647Z 30001KT 07/02 A2992 RMK A01 T00710024  RH  072%=      5-min Rain = 0
KOD1 190648Z 29001KT 07/02 A2992 RMK A01 T00710023  RH  072%=      5-min Rain = 0
KOD1 190649Z 28001KT 07/02 A2992 RMK A01 T00700023  RH  072%=      5-min Rain = 0
KOD1 190650Z 28001KT 07/02 A2992 RMK A01 T00700023  RH  072%=      5-min Rain = 0
KOD1 190651Z 28001KT 07/02 A2992 RMK A01 T00700023  RH  072%=      5-min Rain = 0
KOD1 190652Z 28001KT 07/02 A2992 RMK A01 T00700023  RH  072%=      5-min Rain = 0
KOD1 190653Z 27001KT 07/02 A2992 RMK A01 T00700023  RH  072%=      5-min Rain = 0
KOD1 190654Z 26001KT 07/02 A2992 RMK A01 T00690023  RH  072%=      5-min Rain = 0
KOD1 190655Z 26001KT 07/02 A2992 RMK A01 T00690023  RH  073%=      5-min Rain = 0
KOD1 190656Z 25001KT 07/02 A2992 RMK A01 T00690023  RH  073%=      5-min Rain = 0
KOD1 190657Z 25001KT 07/02 A2992 RMK A01 T00690023  RH  072%=      5-min Rain = 0
KOD1 190658Z 25001KT 07/02 A2992 RMK A01 T00700023  RH  072%=      5-min Rain = 0
KOD1 190659Z 25001KT 07/02 A2992 RMK A01 T00690022  RH  072%=      5-min Rain = 0
KOD1 190700Z 25001KT 07/02 A2992 RMK A01 T00690022  RH  072%=      5-min Rain = 0
KOD1 190701Z 25001KT 07/02 A2991 RMK A01 T00700022  RH  072%=      5-min Rain = 0
KOD1 190702Z 25000KT 07/02 A2991 RMK A01 T00690021  RH  072%=      5-min Rain = 0
KOD1 190703Z 25000KT 07/02 A2991 RMK A01 T00690021  RH  072%=      5-min Rain = 0
KOD1 190704Z 25000KT 07/02 A2991 RMK A01 T00690021  RH  072%=      5-min Rain = 0
KOD1 190705Z 25000KT 07/02 A2992 RMK A01 T00690021  RH  072%=      5-min Rain = 0
KOD1 190706Z 26001KT 07/02 A2992 RMK A01 T00680021  RH  072%=      5-min Rain = 0
KOD1 190707Z 27001KT 07/02 A2992 RMK A01 T00680021  RH  072%=      5-min Rain = 0
KOD1 190708Z 28001KT 07/02 A2992 RMK A01 T00680021  RH  072%=      5-min Rain = 0
KOD1 190709Z 28002KT 07/02 A2992 RMK A01 T00680021  RH  072%=      5-min Rain = 0
KOD1 190710Z 28002KT 07/02 A2992 RMK A01 T00680021  RH  072%=      5-min Rain = 0
KOD1 190711Z 28002KT 07/02 A2992 RMK A01 T00680022  RH  072%=      5-min Rain = 0
KOD1 190712Z 27002KT 07/02 A2992 RMK A01 T00690022  RH  072%=      5-min Rain = 0
KOD1 190713Z 26002KT 07/02 A2992 RMK A01 T00700022  RH  071%=      5-min Rain = 0
KOD1 190714Z 25002KT 07/02 A2992 RMK A01 T00710022  RH  071%=      5-min Rain = 0
KOD1 190715Z 25002KT 07/02 A2992 RMK A01 T00720022  RH  070%=      5-min Rain = 0
KOD1 190716Z 25003KT 07/02 A2992 RMK A01 T00720022  RH  071%=      5-min Rain = 0
KOD1 190717Z 24003KT 07/02 A2992 RMK A01 T00720022  RH  071%=      5-min Rain = 0
KOD1 190718Z 24003KT 07/02 A2992 RMK A01 T00710022  RH  071%=      5-min Rain = 0
KOD1 190719Z 24003KT 07/02 A2992 RMK A01 T00700021  RH  071%=      5-min Rain = 0
KOD1 190720Z 24002KT 07/02 A2992 RMK A01 T00690021  RH  071%=      5-min Rain = 0
KOD1 190721Z 24002KT 07/02 A2992 RMK A01 T00680021  RH  072%=      5-min Rain = 0
KOD1 190722Z 25002KT 07/02 A2992 RMK A01 T00670020  RH  072%=      5-min Rain = 0
KOD1 190723Z 25003KT 07/02 A2992 RMK A01 T00660020  RH  073%=      5-min Rain = 0
KOD1 190724Z 25003KT 07/02 A2992 RMK A01 T00660020  RH  073%=      5-min Rain = 0
KOD1 190725Z 25003KT 07/02 A2992 RMK A01 T00660020  RH  072%=      5-min Rain = 0
KOD1 190726Z 25002KT 07/02 A2991 RMK A01 T00650019  RH  072%=      5-min Rain = 0
KOD1 190727Z 25002KT 07/02 A2991 RMK A01 T00650018  RH  072%=      5-min Rain = 0
KOD1 190728Z 25002KT 07/02 A2991 RMK A01 T00650018  RH  072%=      5-min Rain = 0
KOD1 190729Z 26002KT 06/02 A2991 RMK A01 T00640018  RH  072%=      5-min Rain = 0
KOD1 190730Z 26002KT 06/02 A2991 RMK A01 T00640018  RH  072%=      5-min Rain = 0
KOD1 190731Z 26002KT 06/02 A2991 RMK A01 T00640018  RH  072%=      5-min Rain = 0
KOD1 190732Z 26001KT 06/02 A2991 RMK A01 T00640018  RH  072%=      5-min Rain = 0
KOD1 190733Z 26001KT 06/02 A2991 RMK A01 T00640018  RH  072%=      5-min Rain = 0
KOD1 190734Z 26001KT 06/02 A2991 RMK A01 T00640018  RH  072%=      5-min Rain = 0
KOD1 190735Z 26001KT 06/02 A2991 RMK A01 T00640018  RH  072%=      5-min Rain = 0
KOD1 190736Z 26001KT 07/02 A2991 RMK A01 T00650018  RH  072%=      5-min Rain = 0
KOD1 190737Z 26001KT 07/02 A2991 RMK A01 T00650018  RH  072%=      5-min Rain = 0
KOD1 190738Z 27001KT 07/02 A2991 RMK A01 T00660019  RH  072%=      5-min Rain = 0
KOD1 190739Z 29001KT 07/02 A2991 RMK A01 T00660019  RH  072%=      5-min Rain = 0
KOD1 190740Z 29001KT 07/02 A2991 RMK A01 T00670019  RH  072%=      5-min Rain = 0
KOD1 190741Z 29002KT 07/02 A2991 RMK A01 T00670018  RH  071%=      5-min Rain = 0
KOD1 190742Z 29002KT 07/02 A2991 RMK A01 T00670018  RH  071%=      5-min Rain = 0
KOD1 190743Z 29002KT 07/02 A2991 RMK A01 T00680019  RH  071%=      5-min Rain = 0
KOD1 190744Z 29002KT 07/02 A2991 RMK A01 T00680019  RH  071%=      5-min Rain = 0
KOD1 190745Z 29002KT 07/02 A2991 RMK A01 T00690019  RH  071%=      5-min Rain = 0
KOD1 190746Z 30002KT 07/02 A2992 RMK A01 T00690019  RH  070%=      5-min Rain = 0
KOD1 190747Z 30003KT 07/02 A2992 RMK A01 T00700019  RH  070%=      5-min Rain = 0
KOD1 190748Z 29003KT 07/02 A2992 RMK A01 T00710019  RH  069%=      5-min Rain = 0
KOD1 190749Z 27003KT 07/02 A2992 RMK A01 T00720019  RH  069%=      5-min Rain = 0
KOD1 190750Z 24003KT 07/02 A2992 RMK A01 T00720018  RH  068%=      5-min Rain = 0
KOD1 190751Z 21004KT 07/02 A2992 RMK A01 T00700017  RH  069%=      5-min Rain = 0
KOD1 190752Z 20006KT 07/02 A2992 RMK A01 T00670018  RH  071%=      5-min Rain = 0
KOD1 190753Z 20005KT 07/02 A2992 RMK A01 T00650018  RH  072%=      5-min Rain = 0
KOD1 190754Z 22003KT 06/02 A2992 RMK A01 T00630019  RH  074%=      5-min Rain = 0
KOD1 190755Z 24003KT 06/02 A2992 RMK A01 T00610020  RH  075%=      5-min Rain = 0
KOD1 190756Z 24003KT 06/02 A2992 RMK A01 T00600020  RH  075%=      5-min Rain = 0
KOD1 190757Z 22003KT 06/02 A2992 RMK A01 T00590020  RH  076%=      5-min Rain = 0
KOD1 190758Z 22004KT 06/02 A2992 RMK A01 T00580020  RH  076%=      5-min Rain = 0
KOD1 190759Z 23004KT 06/02 A2992 RMK A01 T00580020  RH  077%=      5-min Rain = 0
KOD1 190800Z 25004KT 06/02 A2992 RMK A01 T00580021  RH  077%=      5-min Rain = 0
KOD1 190801Z 26004KT 06/02 A2992 RMK A01 T00590021  RH  077%=      5-min Rain = 0
KOD1 190802Z 26004KT 06/02 A2992 RMK A01 T00590021  RH  076%=      5-min Rain = 0
KOD1 190803Z 25005KT 06/02 A2992 RMK A01 T00600019  RH  075%=      5-min Rain = 0
KOD1 190804Z 25005KT 06/02 A2992 RMK A01 T00600017  RH  073%=      5-min Rain = 0
KOD1 190805Z 24005KT 06/02 A2993 RMK A01 T00600015  RH  073%=      5-min Rain = 0
KOD1 190806Z 24005KT 06/01 A2993 RMK A01 T00590014  RH  073%=      5-min Rain = 0
KOD1 190807Z 23006KT 06/01 A2993 RMK A01 T00570013  RH  073%=      5-min Rain = 0
KOD1 190808Z 23005KT 06/01 A2993 RMK A01 T00550012  RH  074%=      5-min Rain = 0
KOD1 190809Z 22006KT 05/01 A2993 RMK A01 T00540012  RH  075%=      5-min Rain = 0
KOD1 190810Z 23005KT 05/01 A2993 RMK A01 T00520012  RH  075%=      5-min Rain = 0
KOD1 190811Z 24004KT 05/01 A2993 RMK A01 T00510012  RH  076%=      5-min Rain = 0
KOD1 190812Z 25004KT 05/01 A2993 RMK A01 T00500012  RH  076%=      5-min Rain = 0
KOD1 190813Z 26005KT 05/01 A2993 RMK A01 T00500012  RH  077%=      5-min Rain = 0
KOD1 190814Z 25005KT 05/01 A2993 RMK A01 T00500013  RH  077%=      5-min Rain = 0
KOD1 190815Z 24005KT 05/01 A2993 RMK A01 T00510013  RH  077%=      5-min Rain = 0
KOD1 190816Z 24005KT 05/01 A2993 RMK A01 T00510014  RH  077%=      5-min Rain = 0
KOD1 190817Z 24005KT 05/01 A2993 RMK A01 T00510014  RH  077%=      5-min Rain = 0
KOD1 190818Z 24005KT 05/01 A2993 RMK A01 T00520014  RH  077%=      5-min Rain = 0
KOD1 190819Z 24005KT 05/02 A2993 RMK A01 T00520015  RH  077%=      5-min Rain = 0
KOD1 190820Z 25004KT 05/01 A2993 RMK A01 T00520014  RH  076%=      5-min Rain = 0
KOD1 190821Z 25004KT 05/02 A2993 RMK A01 T00530015  RH  076%=      5-min Rain = 0
KOD1 190822Z 24005KT 05/02 A2993 RMK A01 T00540015  RH  076%=      5-min Rain = 0
KOD1 190823Z 23006KT 05/01 A2993 RMK A01 T00540014  RH  076%=      5-min Rain = 0
KOD1 190824Z 23005KT 05/01 A2993 RMK A01 T00540013  RH  075%=      5-min Rain = 0
KOD1 190825Z 24005KT 05/01 A2993 RMK A01 T00530012  RH  075%=      5-min Rain = 0
KOD1 190826Z 24005KT 05/01 A2993 RMK A01 T00520011  RH  075%=      5-min Rain = 0
KOD1 190827Z 24005KT 05/01 A2993 RMK A01 T00510011  RH  075%=      5-min Rain = 0
KOD1 190828Z 25006KT 05/01 A2994 RMK A01 T00500010  RH  076%=      5-min Rain = 0
KOD1 190829Z 25006KT 05/01 A2994 RMK A01 T00490011  RH  076%=      5-min Rain = 0
KOD1 190830Z 25006KT 05/01 A2994 RMK A01 T00490011  RH  076%=      5-min Rain = 0
KOD1 190831Z 25006KT 05/01 A2994 RMK A01 T00490012  RH  077%=      5-min Rain = 0
KOD1 190832Z 25006KT 05/01 A2994 RMK A01 T00490013  RH  077%=      5-min Rain = 0
KOD1 190833Z 25006KT 05/01 A2994 RMK A01 T00490014  RH  078%=      5-min Rain = 0
KOD1 190834Z 25006KT 05/01 A2993 RMK A01 T00480014  RH  078%=      5-min Rain = 0
KOD1 190835Z 25006KT 05/01 A2993 RMK A01 T00470014  RH  079%=      5-min Rain = 0
KOD1 190836Z 26005KT 05/01 A2993 RMK A01 T00470014  RH  079%=      5-min Rain = 0
KOD1 190837Z 25005KT 05/01 A2993 RMK A01 T00460014  RH  079%=      5-min Rain = 0
KOD1 190838Z 25005KT 05/01 A2993 RMK A01 T00460014  RH  080%=      5-min Rain = 0
KOD1 190839Z 26006KT 05/01 A2993 RMK A01 T00460014  RH  080%=      5-min Rain = 0
KOD1 190840Z 26006KT 05/01 A2993 RMK A01 T00460014  RH  080%=      5-min Rain = 0
KOD1 190841Z 26005KT 05/01 A2993 RMK A01 T00450014  RH  080%=      5-min Rain = 0
KOD1 190842Z 26005KT 05/01 A2993 RMK A01 T00450013  RH  080%=      5-min Rain = 0
KOD1 190843Z 25005KT 05/01 A2993 RMK A01 T00450014  RH  080%=      5-min Rain = 0
KOD1 190844Z 24005KT 05/01 A2993 RMK A01 T00450014  RH  080%=      5-min Rain = 0
KOD1 190845Z 24004KT 05/01 A2993 RMK A01 T00450014  RH  080%=      5-min Rain = 0
KOD1 190846Z 24003KT 04/01 A2993 RMK A01 T00440013  RH  080%=      5-min Rain = 0
KOD1 190847Z 24003KT 04/01 A2993 RMK A01 T00440013  RH  081%=      5-min Rain = 0
KOD1 190848Z 24002KT 04/01 A2993 RMK A01 T00430013  RH  080%=      5-min Rain = 0
KOD1 190849Z 24002KT 04/01 A2993 RMK A01 T00430013  RH  081%=      5-min Rain = 0
KOD1 190850Z 24003KT 04/01 A2993 RMK A01 T00430013  RH  081%=      5-min Rain = 0
KOD1 190851Z 24003KT 04/01 A2993 RMK A01 T00430012  RH  081%=      5-min Rain = 0
KOD1 190852Z 23004KT 04/01 A2994 RMK A01 T00430013  RH  081%=      5-min Rain = 0
KOD1 190853Z 22005KT 04/01 A2994 RMK A01 T00440014  RH  081%=      5-min Rain = 0
KOD1 190854Z 21006KT 05/01 A2994 RMK A01 T00450014  RH  081%=      5-min Rain = 0
KOD1 190855Z 21007KT 05/01 A2994 RMK A01 T00450014  RH  080%=      5-min Rain = 0
KOD1 190856Z 21008KT 05/01 A2995 RMK A01 T00450014  RH  080%=      5-min Rain = 0
KOD1 190857Z 22006KT 05/02 A2994 RMK A01 T00450015  RH  081%=      5-min Rain = 0
KOD1 190858Z 22005KT 05/02 A2994 RMK A01 T00460016  RH  081%=      5-min Rain = 0
KOD1 190859Z 22005KT 05/02 A2994 RMK A01 T00470016  RH  080%=      5-min Rain = 0
KOD1 190900Z 22005KT 05/02 A2994 RMK A01 T00480015  RH  079%=      5-min Rain = 0
KOD1 190901Z 23006KT 05/02 A2994 RMK A01 T00480015  RH  079%=      5-min Rain = 0
KOD1 190902Z 23006KT 05/01 A2994 RMK A01 T00480014  RH  078%=      5-min Rain = 0
KOD1 190903Z 24006KT 05/01 A2994 RMK A01 T00470013  RH  078%=      5-min Rain = 0
KOD1 190904Z 24006KT 05/01 A2994 RMK A01 T00460012  RH  078%=      5-min Rain = 0
KOD1 190905Z 25005KT 05/01 A2994 RMK A01 T00450011  RH  079%=      5-min Rain = 0
KOD1 190906Z 25005KT 04/01 A2994 RMK A01 T00440011  RH  079%=      5-min Rain = 0
KOD1 190907Z 25005KT 04/01 A2994 RMK A01 T00430011  RH  079%=      5-min Rain = 0
KOD1 190908Z 24005KT 04/01 A2995 RMK A01 T00430010  RH  079%=      5-min Rain = 0
KOD1 190909Z 24005KT 04/01 A2995 RMK A01 T00430010  RH  079%=      5-min Rain = 0
KOD1 190910Z 24005KT 04/01 A2995 RMK A01 T00430011  RH  080%=      5-min Rain = 0
KOD1 190911Z 24005KT 04/01 A2995 RMK A01 T00430011  RH  080%=      5-min Rain = 0
KOD1 190912Z 25004KT 04/01 A2995 RMK A01 T00430012  RH  080%=      5-min Rain = 0
KOD1 190913Z 26005KT 04/01 A2994 RMK A01 T00430012  RH  080%=      5-min Rain = 0
KOD1 190914Z 27004KT 04/01 A2994 RMK A01 T00430012  RH  080%=      5-min Rain = 0
KOD1 190915Z 27004KT 04/01 A2994 RMK A01 T00430012  RH  080%=      5-min Rain = 0
KOD1 190916Z 26005KT 04/01 A2994 RMK A01 T00430011  RH  080%=      5-min Rain = 0
KOD1 190917Z 26005KT 04/01 A2994 RMK A01 T00430012  RH  080%=      5-min Rain = 0
KOD1 190918Z 26004KT 04/01 A2994 RMK A01 T00420011  RH  080%=      5-min Rain = 0
KOD1 190919Z 26004KT 04/01 A2994 RMK A01 T00420011  RH  080%=      5-min Rain = 0
KOD1 190920Z 26004KT 04/01 A2994 RMK A01 T00420011  RH  080%=      5-min Rain = 0
KOD1 190921Z 26003KT 04/01 A2994 RMK A01 T00420010  RH  080%=      5-min Rain = 0
KOD1 190922Z 26003KT 04/01 A2994 RMK A01 T00420010  RH  080%=      5-min Rain = 0
KOD1 190923Z 26003KT 04/01 A2994 RMK A01 T00420010  RH  080%=      5-min Rain = 0
KOD1 190924Z 27003KT 04/01 A2994 RMK A01 T00420011  RH  080%=      5-min Rain = 0
KOD1 190925Z 27004KT 04/01 A2994 RMK A01 T00430012  RH  080%=      5-min Rain = 0
KOD1 190926Z 28004KT 05/01 A2994 RMK A01 T00450012  RH  080%=      5-min Rain = 0
KOD1 190927Z 29004KT 05/01 A2994 RMK A01 T00460013  RH  079%=      5-min Rain = 0
KOD1 190928Z 30005KT 05/01 A2994 RMK A01 T00480012  RH  078%=      5-min Rain = 0
KOD1 190929Z 30004KT 05/01 A2994 RMK A01 T00490012  RH  077%=      5-min Rain = 0
KOD1 190930Z 30004KT 05/01 A2994 RMK A01 T00490011  RH  076%=      5-min Rain = 0
KOD1 190931Z 30005KT 05/01 A2994 RMK A01 T00500011  RH  076%=      5-min Rain = 0
KOD1 190932Z 30005KT 05/01 A2993 RMK A01 T00500011  RH  076%=      5-min Rain = 0
KOD1 190933Z 30006KT 05/01 A2993 RMK A01 T00510011  RH  075%=      5-min Rain = 0
KOD1 190934Z 30006KT 05/01 A2993 RMK A01 T00520011  RH  075%=      5-min Rain = 0
KOD1 190935Z 30006KT 05/01 A2993 RMK A01 T00520011  RH  075%=      5-min Rain = 0
KOD1 190936Z 30007KT 05/01 A2993 RMK A01 T00520010  RH  075%=      5-min Rain = 0
KOD1 190937Z 30007KT 05/01 A2993 RMK A01 T00500010  RH  075%=      5-min Rain = 0
KOD1 190938Z 31007KT 05/01 A2993 RMK A01 T00490010  RH  076%=      5-min Rain = 0
KOD1 190939Z 30007KT 05/01 A2993 RMK A01 T00490011  RH  076%=      5-min Rain = 0
KOD1 190940Z 30007KT 05/01 A2993 RMK A01 T00490011  RH  076%=      5-min Rain = 0
KOD1 190941Z 30007KT 05/01 A2993 RMK A01 T00510012  RH  076%=      5-min Rain = 0
KOD1 190942Z 30006KT 05/01 A2993 RMK A01 T00520013  RH  076%=      5-min Rain = 0
KOD1 190943Z 30006KT 05/01 A2993 RMK A01 T00530013  RH  075%=      5-min Rain = 0
KOD1 190944Z 30006KT 05/01 A2993 RMK A01 T00530013  RH  075%=      5-min Rain = 0
KOD1 190945Z 30006KT 05/01 A2993 RMK A01 T00530013  RH  075%=      5-min Rain = 0
KOD1 190946Z 29005KT 05/01 A2993 RMK A01 T00540013  RH  075%=      5-min Rain = 0
KOD1 190947Z 29005KT 05/01 A2993 RMK A01 T00540013  RH  075%=      5-min Rain = 0
KOD1 190948Z 28005KT 06/01 A2993 RMK A01 T00550013  RH  074%=      5-min Rain = 0
KOD1 190949Z 29005KT 06/01 A2993 RMK A01 T00560012  RH  074%=      5-min Rain = 0
KOD1 190950Z 28004KT 06/01 A2993 RMK A01 T00560012  RH  073%=      5-min Rain = 0
KOD1 190951Z 28004KT 06/01 A2993 RMK A01 T00560012  RH  073%=      5-min Rain = 0
KOD1 190952Z 28004KT 06/01 A2993 RMK A01 T00550011  RH  073%=      5-min Rain = 0
KOD1 190953Z 29004KT 06/01 A2993 RMK A01 T00550011  RH  073%=      5-min Rain = 0
KOD1 190954Z 29005KT 06/01 A2993 RMK A01 T00550011  RH  073%=      5-min Rain = 0
KOD1 190955Z 29005KT 06/01 A2993 RMK A01 T00560011  RH  073%=      5-min Rain = 0
KOD1 190956Z 29005KT 06/01 A2993 RMK A01 T00570011  RH  073%=      5-min Rain = 0
KOD1 190957Z 28005KT 06/01 A2993 RMK A01 T00570011  RH  072%=      5-min Rain = 0
KOD1 190958Z 28005KT 06/01 A2993 RMK A01 T00570011  RH  072%=      5-min Rain = 0
KOD1 190959Z 29005KT 06/01 A2993 RMK A01 T00560010  RH  072%=      5-min Rain = 0
KOD1 191000Z 29005KT 06/01 A2993 RMK A01 T00560010  RH  072%=      5-min Rain = 0
KOD1 191001Z 29005KT 06/01 A2993 RMK A01 T00560010  RH  072%=      5-min Rain = 0
KOD1 191002Z 29004KT 06/01 A2993 RMK A01 T00550010  RH  073%=      5-min Rain = 0
KOD1 191003Z 30004KT 06/01 A2993 RMK A01 T00550010  RH  073%=      5-min Rain = 0
KOD1 191004Z 30005KT 05/01 A2993 RMK A01 T00540009  RH  073%=      5-min Rain = 0
KOD1 191005Z 31005KT 05/01 A2993 RMK A01 T00540010  RH  073%=      5-min Rain = 0
KOD1 191006Z 31005KT 05/01 A2993 RMK A01 T00540010  RH  073%=      5-min Rain = 0
KOD1 191007Z 32005KT 05/01 A2993 RMK A01 T00540010  RH  073%=      5-min Rain = 0
KOD1 191008Z 32005KT 05/01 A2993 RMK A01 T00540010  RH  073%=      5-min Rain = 0
KOD1 191009Z 32005KT 06/01 A2993 RMK A01 T00550010  RH  073%=      5-min Rain = 0
KOD1 191010Z 32005KT 06/01 A2993 RMK A01 T00560011  RH  073%=      5-min Rain = 0
KOD1 191011Z 32005KT 06/01 A2993 RMK A01 T00560011  RH  073%=      5-min Rain = 0
KOD1 191012Z 31004KT 06/01 A2993 RMK A01 T00570011  RH  072%=      5-min Rain = 0
KOD1 191013Z 31005KT 06/01 A2993 RMK A01 T00570011  RH  072%=      5-min Rain = 0
KOD1 191014Z 31005KT 06/01 A2993 RMK A01 T00570011  RH  072%=      5-min Rain = 0
KOD1 191015Z 32005KT 06/01 A2993 RMK A01 T00570011  RH  072%=      5-min Rain = 0
KOD1 191016Z 31005KT 06/01 A2993 RMK A01 T00570011  RH  072%=      5-min Rain = 0
KOD1 191017Z 31005KT 06/01 A2993 RMK A01 T00570010  RH  072%=      5-min Rain = 0
KOD1 191018Z 31005KT 06/01 A2993 RMK A01 T00560010  RH  072%=      5-min Rain = 0
KOD1 191019Z 31005KT 06/01 A2993 RMK A01 T00560010  RH  072%=      5-min Rain = 0
KOD1 191020Z 31005KT 06/01 A2993 RMK A01 T00550010  RH  073%=      5-min Rain = 0
KOD1 191021Z 30005KT 06/01 A2993 RMK A01 T00560010  RH  072%=      5-min Rain = 0
KOD1 191022Z 29005KT 06/01 A2993 RMK A01 T00560010  RH  072%=      5-min Rain = 0
KOD1 191023Z 29006KT 06/01 A2993 RMK A01 T00560010  RH  072%=      5-min Rain = 0
KOD1 191024Z 29006KT 06/01 A2993 RMK A01 T00560010  RH  072%=      5-min Rain = 0
KOD1 191025Z 30006KT 06/01 A2993 RMK A01 T00560010  RH  072%=      5-min Rain = 0
KOD1 191026Z 30006KT 06/01 A2993 RMK A01 T00560010  RH  072%=      5-min Rain = 0
KOD1 191027Z 30006KT 06/01 A2993 RMK A01 T00550009  RH  072%=      5-min Rain = 0
KOD1 191028Z 30007KT 05/01 A2993 RMK A01 T00530009  RH  073%=      5-min Rain = 0
KOD1 191029Z 30007KT 05/01 A2993 RMK A01 T00520009  RH  073%=      5-min Rain = 0
KOD1 191030Z 31007KT 05/01 A2993 RMK A01 T00510009  RH  074%=      5-min Rain = 0
KOD1 191031Z 31007KT 05/01 A2993 RMK A01 T00500009  RH  075%=      5-min Rain = 0
KOD1 191032Z 31007KT 05/01 A2993 RMK A01 T00500010  RH  075%=      5-min Rain = 0
KOD1 191033Z 31007KT 05/01 A2993 RMK A01 T00500010  RH  076%=      5-min Rain = 0
KOD1 191034Z 31007KT 05/01 A2994 RMK A01 T00500011  RH  076%=      5-min Rain = 0
KOD1 191035Z 31007KT 05/01 A2994 RMK A01 T00510011  RH  076%=      5-min Rain = 0
KOD1 191036Z 31007KT 05/01 A2994 RMK A01 T00520012  RH  075%=      5-min Rain = 0
KOD1 191037Z 31007KT 05/01 A2994 RMK A01 T00520011  RH  075%=      5-min Rain = 0
KOD1 191038Z 31007KT 05/01 A2994 RMK A01 T00520011  RH  074%=      5-min Rain = 0
KOD1 191039Z 32006KT 05/01 A2994 RMK A01 T00520010  RH  074%=      5-min Rain = 0
KOD1 191040Z 31006KT 05/01 A2994 RMK A01 T00510010  RH  075%=      5-min Rain = 0
KOD1 191041Z 31006KT 05/01 A2994 RMK A01 T00500009  RH  075%=      5-min Rain = 0
KOD1 191042Z 31005KT 05/01 A2994 RMK A01 T00490009  RH  075%=      5-min Rain = 0
KOD1 191043Z 31005KT 05/01 A2994 RMK A01 T00490009  RH  075%=      5-min Rain = 0
KOD1 191044Z 30005KT 05/01 A2994 RMK A01 T00480009  RH  076%=      5-min Rain = 0
KOD1 191045Z 30005KT 05/01 A2994 RMK A01 T00460007  RH  076%=      5-min Rain = 0
KOD1 191046Z 30005KT 04/01 A2994 RMK A01 T00430005  RH  076%=      5-min Rain = 0
KOD1 191047Z 29005KT 04/00 A2994 RMK A01 T00400004  RH  077%=      5-min Rain = 0
KOD1 191048Z 28004KT 04/00 A2994 RMK A01 T00380003  RH  078%=      5-min Rain = 0
KOD1 191049Z 28003KT 04/00 A2994 RMK A01 T00360003  RH  079%=      5-min Rain = 0
KOD1 191050Z 29003KT 04/00 A2994 RMK A01 T00350004  RH  080%=      5-min Rain = 0
KOD1 191051Z 30003KT 03/00 A2994 RMK A01 T00340004  RH  081%=      5-min Rain = 0
KOD1 191052Z 30004KT 03/00 A2994 RMK A01 T00330004  RH  081%=      5-min Rain = 0
KOD1 191053Z 30005KT 03/00 A2994 RMK A01 T00330004  RH  081%=      5-min Rain = 0
KOD1 191054Z 30005KT 03/00 A2994 RMK A01 T00330004  RH  082%=      5-min Rain = 0
KOD1 191055Z 29005KT 03/01 A2994 RMK A01 T00330005  RH  082%=      5-min Rain = 0
KOD1 191056Z 28004KT 03/00 A2994 RMK A01 T00330004  RH  082%=      5-min Rain = 0
KOD1 191057Z 28005KT 03/00 A2994 RMK A01 T00320004  RH  082%=      5-min Rain = 0
KOD1 191058Z 28005KT 03/00 A2994 RMK A01 T00300003  RH  082%=      5-min Rain = 0
KOD1 191059Z 28005KT 03/00 A2995 RMK A01 T00300003  RH  083%=      5-min Rain = 0
KOD1 191100Z 29005KT 03/00 A2995 RMK A01 T00290003  RH  083%=      5-min Rain = 0
KOD1 191101Z 29005KT 03/00 A2995 RMK A01 T00280003  RH  084%=      5-min Rain = 0
KOD1 191102Z 30004KT 03/00 A2995 RMK A01 T00270003  RH  084%=      5-min Rain = 0
KOD1 191103Z 30004KT 03/00 A2995 RMK A01 T00270004  RH  084%=      5-min Rain = 0
KOD1 191104Z 31005KT 03/00 A2995 RMK A01 T00280004  RH  085%=      5-min Rain = 0
KOD1 191105Z 31005KT 03/01 A2995 RMK A01 T00290006  RH  085%=      5-min Rain = 0
KOD1 191106Z 32005KT 03/01 A2995 RMK A01 T00290006  RH  085%=      5-min Rain = 0
KOD1 191107Z 32006KT 03/01 A2994 RMK A01 T00290005  RH  084%=      5-min Rain = 0
KOD1 191108Z 32006KT 03/01 A2994 RMK A01 T00290005  RH  084%=      5-min Rain = 0
KOD1 191109Z 32006KT 03/01 A2994 RMK A01 T00290005  RH  084%=      5-min Rain = 0
KOD1 191110Z 33006KT 03/01 A2994 RMK A01 T00300006  RH  084%=      5-min Rain = 0
KOD1 191111Z 33006KT 03/01 A2994 RMK A01 T00310007  RH  084%=      5-min Rain = 0
KOD1 191112Z 33006KT 03/01 A2994 RMK A01 T00330009  RH  084%=      5-min Rain = 0
KOD1 191113Z 34005KT 04/01 A2994 RMK A01 T00360012  RH  084%=      5-min Rain = 0
KOD1 191114Z 34005KT 04/01 A2994 RMK A01 T00390013  RH  083%=      5-min Rain = 0
KOD1 191115Z 34006KT 04/01 A2994 RMK A01 T00420013  RH  082%=      5-min Rain = 0
KOD1 191116Z 34006KT 04/01 A2994 RMK A01 T00430012  RH  080%=      5-min Rain = 0
KOD1 191117Z 34007KT 05/01 A2994 RMK A01 T00450012  RH  079%=      5-min Rain = 0
KOD1 191118Z 34007KT 05/01 A2994 RMK A01 T00460012  RH  078%=      5-min Rain = 0
KOD1 191119Z 34006KT 05/01 A2994 RMK A01 T00470012  RH  078%=      5-min Rain = 0
KOD1 191120Z 34006KT 05/01 A2994 RMK A01 T00480011  RH  077%=      5-min Rain = 0
KOD1 191121Z 34006KT 05/01 A2994 RMK A01 T00490012  RH  077%=      5-min Rain = 0
KOD1 191122Z 34006KT 05/01 A2994 RMK A01 T00500012  RH  077%=      5-min Rain = 0
KOD1 191123Z 34006KT 05/01 A2994 RMK A01 T00510013  RH  076%=      5-min Rain = 0
KOD1 191124Z 34005KT 05/01 A2994 RMK A01 T00520013  RH  076%=      5-min Rain = 0
KOD1 191125Z 34005KT 05/01 A2995 RMK A01 T00520012  RH  076%=      5-min Rain = 0
KOD1 191126Z 34005KT 05/01 A2994 RMK A01 T00520012  RH  076%=      5-min Rain = 0
KOD1 191127Z 34005KT 05/01 A2994 RMK A01 T00520013  RH  076%=      5-min Rain = 0
KOD1 191128Z 34005KT 05/01 A2994 RMK A01 T00520012  RH  076%=      5-min Rain = 0
KOD1 191129Z 34005KT 05/01 A2995 RMK A01 T00520013  RH  076%=      5-min Rain = 0
KOD1 191130Z 33003KT 05/01 A2995 RMK A01 T00520013  RH  076%=      5-min Rain = 0
KOD1 191131Z 33002KT 05/01 A2995 RMK A01 T00510010  RH  075%=      5-min Rain = 0
KOD1 191132Z 31002KT 05/01 A2995 RMK A01 T00500009  RH  075%=      5-min Rain = 0
KOD1 191133Z 31003KT 05/01 A2995 RMK A01 T00490010  RH  076%=      5-min Rain = 0
KOD1 191134Z 30002KT 05/01 A2995 RMK A01 T00480011  RH  077%=      5-min Rain = 0
KOD1 191135Z 30003KT 05/01 A2995 RMK A01 T00470010  RH  077%=      5-min Rain = 0
KOD1 191136Z 31003KT 05/01 A2995 RMK A01 T00450010  RH  078%=      5-min Rain = 0
KOD1 191137Z 31004KT 04/01 A2995 RMK A01 T00430008  RH  078%=      5-min Rain = 0
KOD1 191138Z 31004KT 04/01 A2995 RMK A01 T00420007  RH  078%=      5-min Rain = 0
KOD1 191139Z 32004KT 04/01 A2995 RMK A01 T00410007  RH  079%=      5-min Rain = 0
KOD1 191140Z 32005KT 04/01 A2995 RMK A01 T00400007  RH  079%=      5-min Rain = 0
KOD1 191141Z 32005KT 04/01 A2995 RMK A01 T00390007  RH  079%=      5-min Rain = 0
KOD1 191142Z 31004KT 04/01 A2995 RMK A01 T00390006  RH  079%=      5-min Rain = 0
KOD1 191143Z 29003KT 04/01 A2995 RMK A01 T00370005  RH  080%=      5-min Rain = 0
KOD1 191144Z 25004KT 04/01 A2995 RMK A01 T00360005  RH  080%=      5-min Rain = 0
KOD1 191145Z 22005KT 03/00 A2995 RMK A01 T00340003  RH  080%=      5-min Rain = 0
KOD1 191146Z 22006KT 03/00 A2995 RMK A01 T00320004  RH  082%=      5-min Rain = 0
KOD1 191147Z 22006KT 03/01 A2995 RMK A01 T00330006  RH  083%=      5-min Rain = 0
KOD1 191148Z 22006KT 03/01 A2995 RMK A01 T00330007  RH  083%=      5-min Rain = 0
KOD1 191149Z 22005KT 03/01 A2995 RMK A01 T00330006  RH  083%=      5-min Rain = 0
KOD1 191150Z 23005KT 03/01 A2995 RMK A01 T00330006  RH  083%=      5-min Rain = 0
KOD1 191151Z 24004KT 03/01 A2995 RMK A01 T00330006  RH  083%=      5-min Rain = 0
KOD1 191152Z 24004KT 03/01 A2995 RMK A01 T00330006  RH  083%=      5-min Rain = 0
KOD1 191153Z 24004KT 03/01 A2995 RMK A01 T00320006  RH  083%=      5-min Rain = 0
KOD1 191154Z 24004KT 03/01 A2995 RMK A01 T00320006  RH  083%=      5-min Rain = 0
KOD1 191155Z 24005KT 03/01 A2995 RMK A01 T00320005  RH  083%=      5-min Rain = 0
KOD1 191156Z 23005KT 03/01 A2995 RMK A01 T00310005  RH  083%=      5-min Rain = 0
KOD1 191157Z 23005KT 03/00 A2995 RMK A01 T00300004  RH  083%=      5-min Rain = 0
KOD1 191158Z 24004KT 03/00 A2995 RMK A01 T00300004  RH  083%=      5-min Rain = 0
KOD1 191159Z 25004KT 03/00 A2995 RMK A01 T00290003  RH  083%=      5-min Rain = 0
KOD1 191200Z 26004KT 03/00 A2995 RMK A01 T00290003  RH  083%=      5-min Rain = 0
KOD1 191201Z 27004KT 03/00 A2995 RMK A01 T00280003  RH  084%=      5-min Rain = 0
KOD1 191202Z 26005KT 03/00 A2995 RMK A01 T00280003  RH  084%=      5-min Rain = 0
KOD1 191203Z 26006KT 03/00 A2995 RMK A01 T00280004  RH  084%=      5-min Rain = 0
KOD1 191204Z 25006KT 03/00 A2995 RMK A01 T00280004  RH  084%=      5-min Rain = 0
KOD1 191205Z 26005KT 03/00 A2995 RMK A01 T00280004  RH  084%=      5-min Rain = 0
KOD1 191206Z 26005KT 03/00 A2995 RMK A01 T00280004  RH  084%=      5-min Rain = 0
KOD1 191207Z 26005KT 03/00 A2995 RMK A01 T00280004  RH  085%=      5-min Rain = 0
KOD1 191208Z 26006KT 03/00 A2995 RMK A01 T00280004  RH  085%=      5-min Rain = 0
KOD1 191209Z 26005KT 03/00 A2995 RMK A01 T00270004  RH  085%=      5-min Rain = 0
KOD1 191210Z 26005KT 03/00 A2995 RMK A01 T00270004  RH  085%=      5-min Rain = 0
KOD1 191211Z 26005KT 03/00 A2995 RMK A01 T00270004  RH  085%=      5-min Rain = 0
KOD1 191212Z 26005KT 03/00 A2995 RMK A01 T00270004  RH  085%=      5-min Rain = 0
KOD1 191213Z 26005KT 03/01 A2995 RMK A01 T00270005  RH  085%=      5-min Rain = 0
KOD1 191214Z 26005KT 03/00 A2995 RMK A01 T00270004  RH  085%=      5-min Rain = 0
KOD1 191215Z 27004KT 03/00 A2995 RMK A01 T00270004  RH  085%=      5-min Rain = 0
KOD1 191216Z 27004KT 03/00 A2995 RMK A01 T00260004  RH  085%=      5-min Rain = 0
KOD1 191217Z 27004KT 03/00 A2995 RMK A01 T00260004  RH  085%=      5-min Rain = 0
KOD1 191218Z 27005KT 03/00 A2995 RMK A01 T00250003  RH  085%=      5-min Rain = 0
KOD1 191219Z 28004KT 03/00 A2995 RMK A01 T00250004  RH  086%=      5-min Rain = 0
KOD1 191220Z 28004KT 03/00 A2995 RMK A01 T00250004  RH  086%=      5-min Rain = 0
KOD1 191221Z 28004KT 03/00 A2995 RMK A01 T00250004  RH  086%=      5-min Rain = 0
KOD1 191222Z 28004KT 03/00 A2995 RMK A01 T00250004  RH  086%=      5-min Rain = 0
KOD1 191223Z 27003KT 03/00 A2995 RMK A01 T00250004  RH  086%=      5-min Rain = 0
KOD1 191224Z 27004KT 03/00 A2995 RMK A01 T00260004  RH  086%=      5-min Rain = 0
KOD1 191225Z 26003KT 03/01 A2995 RMK A01 T00260005  RH  086%=      5-min Rain = 0
KOD1 191226Z 25003KT 03/01 A2995 RMK A01 T00270005  RH  086%=      5-min Rain = 0
KOD1 191227Z 25003KT 03/01 A2995 RMK A01 T00270005  RH  086%=      5-min Rain = 0
KOD1 191228Z 24003KT 03/01 A2995 RMK A01 T00270005  RH  085%=      5-min Rain = 0
KOD1 191229Z 24003KT 03/01 A2995 RMK A01 T00270005  RH  085%=      5-min Rain = 0
KOD1 191230Z 24003KT 03/01 A2995 RMK A01 T00280006  RH  085%=      5-min Rain = 0
KOD1 191231Z 23003KT 03/01 A2995 RMK A01 T00280006  RH  085%=      5-min Rain = 0
KOD1 191232Z 23003KT 03/01 A2995 RMK A01 T00280006  RH  085%=      5-min Rain = 0
KOD1 191233Z 23003KT 03/01 A2995 RMK A01 T00290006  RH  085%=      5-min Rain = 0
KOD1 191234Z 22003KT 03/01 A2995 RMK A01 T00290006  RH  085%=      5-min Rain = 0
KOD1 191235Z 22003KT 03/01 A2995 RMK A01 T00290006  RH  085%=      5-min Rain = 0
KOD1 191236Z 22003KT 03/01 A2995 RMK A01 T00300007  RH  085%=      5-min Rain = 0
KOD1 191237Z 23003KT 03/01 A2995 RMK A01 T00310007  RH  084%=      5-min Rain = 0
KOD1 191238Z 23003KT 03/01 A2995 RMK A01 T00310006  RH  084%=      5-min Rain = 0
KOD1 191239Z 24003KT 03/01 A2995 RMK A01 T00310007  RH  084%=      5-min Rain = 0
KOD1 191240Z 24003KT 03/01 A2995 RMK A01 T00310007  RH  084%=      5-min Rain = 0
KOD1 191241Z 24003KT 03/01 A2995 RMK A01 T00320007  RH  084%=      5-min Rain = 0
KOD1 191242Z 25004KT 03/01 A2995 RMK A01 T00320008  RH  084%=      5-min Rain = 0
KOD1 191243Z 25004KT 03/01 A2995 RMK A01 T00330008  RH  084%=      5-min Rain = 0
KOD1 191244Z 25004KT 03/01 A2995 RMK A01 T00330007  RH  083%=      5-min Rain = 0
KOD1 191245Z 25004KT 03/01 A2995 RMK A01 T00330007  RH  083%=      5-min Rain = 0
KOD1 191246Z 24003KT 03/01 A2995 RMK A01 T00330007  RH  083%=      5-min Rain = 0
KOD1 191247Z 23003KT 03/01 A2995 RMK A01 T00330006  RH  082%=      5-min Rain = 0
KOD1 191248Z 23004KT 03/01 A2995 RMK A01 T00330006  RH  082%=      5-min Rain = 0
KOD1 191249Z 24003KT 03/01 A2996 RMK A01 T00330006  RH  082%=      5-min Rain = 0
KOD1 191250Z 24003KT 03/01 A2996 RMK A01 T00330006  RH  082%=      5-min Rain = 0
KOD1 191251Z 25002KT 03/01 A2996 RMK A01 T00330005  RH  082%=      5-min Rain = 0
KOD1 191252Z 25002KT 03/00 A2996 RMK A01 T00320004  RH  082%=      5-min Rain = 0
KOD1 191253Z 26002KT 03/00 A2996 RMK A01 T00320004  RH  082%=      5-min Rain = 0
KOD1 191254Z 27002KT 03/00 A2995 RMK A01 T00320004  RH  082%=      5-min Rain = 0
KOD1 191255Z 27002KT 03/00 A2995 RMK A01 T00320004  RH  082%=      5-min Rain = 0
KOD1 191256Z 28002KT 03/00 A2995 RMK A01 T00320004  RH  082%=      5-min Rain = 0
KOD1 191257Z 28002KT 03/00 A2995 RMK A01 T00310004  RH  082%=      5-min Rain = 0
KOD1 191258Z 28002KT 03/00 A2995 RMK A01 T00310004  RH  082%=      5-min Rain = 0
KOD1 191259Z 28003KT 03/00 A2995 RMK A01 T00310004  RH  082%=      5-min Rain = 0
KOD1 191300Z 28003KT 03/00 A2996 RMK A01 T00310004  RH  082%=      5-min Rain = 0
KOD1 191301Z 27003KT 03/00 A2996 RMK A01 T00320004  RH  082%=      5-min Rain = 0
KOD1 191302Z 26003KT 03/00 A2996 RMK A01 T00320004  RH  082%=      5-min Rain = 0
KOD1 191303Z 25003KT 03/00 A2996 RMK A01 T00320004  RH  082%=      5-min Rain = 0
KOD1 191304Z 25004KT 03/00 A2996 RMK A01 T00320004  RH  082%=      5-min Rain = 0
KOD1 191305Z 25004KT 03/00 A2996 RMK A01 T00320004  RH  082%=      5-min Rain = 0
KOD1 191306Z 25004KT 03/00 A2996 RMK A01 T00320003  RH  081%=      5-min Rain = 0
KOD1 191307Z 24004KT 03/00 A2996 RMK A01 T00310003  RH  082%=      5-min Rain = 0
KOD1 191308Z 24004KT 03/00 A2996 RMK A01 T00300002  RH  082%=      5-min Rain = 0
KOD1 191309Z 24004KT 03/00 A2996 RMK A01 T00300002  RH  082%=      5-min Rain = 0
KOD1 191310Z 24004KT 03/00 A2996 RMK A01 T00290002  RH  083%=      5-min Rain = 0
KOD1 191311Z 25003KT 03/00 A2996 RMK A01 T00290002  RH  083%=      5-min Rain = 0
KOD1 191312Z 25003KT 03/00 A2996 RMK A01 T00280002  RH  083%=      5-min Rain = 0
KOD1 191313Z 25004KT 03/00 A2996 RMK A01 T00280003  RH  083%=      5-min Rain = 0
KOD1 191314Z 24004KT 03/00 A2996 RMK A01 T00280003  RH  083%=      5-min Rain = 0
KOD1 191315Z 24004KT 03/00 A2996 RMK A01 T00280003  RH  084%=      5-min Rain = 0
KOD1 191316Z 24003KT 03/00 A2996 RMK A01 T00270002  RH  084%=      5-min Rain = 0
KOD1 191317Z 24004KT 03/00 A2996 RMK A01 T00270002  RH  084%=      5-min Rain = 0
KOD1 191318Z 24004KT 03/00 A2996 RMK A01 T00260002  RH  084%=      5-min Rain = 0
KOD1 191319Z 24005KT 03/00 A2996 RMK A01 T00260002  RH  084%=      5-min Rain = 0
KOD1 191320Z 24005KT 03/00 A2996 RMK A01 T00260002  RH  084%=      5-min Rain = 0
KOD1 191321Z 24005KT 03/00 A2996 RMK A01 T00260002  RH  084%=      5-min Rain = 0
KOD1 191322Z 24005KT 03/00 A2996 RMK A01 T00260002  RH  084%=      5-min Rain = 0
KOD1 191323Z 24005KT 03/00 A2996 RMK A01 T00260002  RH  084%=      5-min Rain = 0
KOD1 191324Z 23005KT 03/00 A2996 RMK A01 T00260002  RH  084%=      5-min Rain = 0
KOD1 191325Z 24005KT 03/00 A2996 RMK A01 T00260002  RH  084%=      5-min Rain = 0
KOD1 191326Z 24005KT 03/00 A2996 RMK A01 T00260002  RH  084%=      5-min Rain = 0
KOD1 191327Z 24004KT 03/00 A2996 RMK A01 T00260002  RH  084%=      5-min Rain = 0
KOD1 191328Z 24004KT 03/00 A2996 RMK A01 T00270003  RH  084%=      5-min Rain = 0
KOD1 191329Z 24005KT 03/00 A2997 RMK A01 T00270003  RH  084%=      5-min Rain = 0
KOD1 191330Z 23005KT 03/00 A2997 RMK A01 T00270004  RH  084%=      5-min Rain = 0
KOD1 191331Z 23004KT 03/00 A2997 RMK A01 T00280004  RH  084%=      5-min Rain = 0
KOD1 191332Z 23004KT 03/01 A2997 RMK A01 T00280005  RH  084%=      5-min Rain = 0
KOD1 191333Z 23004KT 03/01 A2996 RMK A01 T00290006  RH  085%=      5-min Rain = 0
KOD1 191334Z 24004KT 03/01 A2996 RMK A01 T00300006  RH  084%=      5-min Rain = 0
KOD1 191335Z 24004KT 03/01 A2996 RMK A01 T00300006  RH  084%=      5-min Rain = 0
KOD1 191336Z 24004KT 03/01 A2997 RMK A01 T00300006  RH  084%=      5-min Rain = 0
KOD1 191337Z 24004KT 03/01 A2997 RMK A01 T00310006  RH  084%=      5-min Rain = 0
KOD1 191338Z 24004KT 03/01 A2997 RMK A01 T00310006  RH  084%=      5-min Rain = 0
KOD1 191339Z 24004KT 03/01 A2997 RMK A01 T00310006  RH  084%=      5-min Rain = 0
KOD1 191340Z 24004KT 03/01 A2997 RMK A01 T00310006  RH  084%=      5-min Rain = 0
KOD1 191341Z 24003KT 03/01 A2997 RMK A01 T00310006  RH  084%=      5-min Rain = 0
KOD1 191342Z 24003KT 03/01 A2997 RMK A01 T00310006  RH  084%=      5-min Rain = 0
KOD1 191343Z 24003KT 03/01 A2996 RMK A01 T00320008  RH  084%=      5-min Rain = 0
KOD1 191344Z 24003KT 03/01 A2996 RMK A01 T00340011  RH  085%=      5-min Rain = 0
KOD1 191345Z 24003KT 04/01 A2996 RMK A01 T00370014  RH  085%=      5-min Rain = 0
KOD1 191346Z 25002KT 04/02 A2996 RMK A01 T00400015  RH  084%=      5-min Rain = 0
KOD1 191347Z 24002KT 04/02 A2996 RMK A01 T00420015  RH  083%=      5-min Rain = 0
KOD1 191348Z 23002KT 04/02 A2996 RMK A01 T00440015  RH  082%=      5-min Rain = 0
KOD1 191349Z 23003KT 05/01 A2996 RMK A01 T00460014  RH  080%=      5-min Rain = 0
KOD1 191350Z 22003KT 05/01 A2996 RMK A01 T00460012  RH  079%=      5-min Rain = 0
KOD1 191351Z 21002KT 05/01 A2996 RMK A01 T00460011  RH  078%=      5-min Rain = 0
KOD1 191352Z 22002KT 05/01 A2996 RMK A01 T00450010  RH  078%=      5-min Rain = 0
KOD1 191353Z 23002KT 05/01 A2996 RMK A01 T00460012  RH  079%=      5-min Rain = 0
KOD1 191354Z 25001KT 05/01 A2996 RMK A01 T00470013  RH  079%=      5-min Rain = 0
KOD1 191355Z 25001KT 05/02 A2996 RMK A01 T00490015  RH  079%=      5-min Rain = 0
KOD1 191356Z 24001KT 05/02 A2996 RMK A01 T00510016  RH  078%=      5-min Rain = 0
KOD1 191357Z 24001KT 05/02 A2996 RMK A01 T00530017  RH  078%=      5-min Rain = 0
KOD1 191358Z 25001KT 06/02 A2996 RMK A01 T00550017  RH  077%=      5-min Rain = 0
KOD1 191359Z 24001KT 06/02 A2996 RMK A01 T00560016  RH  075%=      5-min Rain = 0
KOD1 191400Z 26001KT 06/02 A2996 RMK A01 T00570016  RH  075%=      5-min Rain = 0
KOD1 191401Z 26001KT 06/02 A2996 RMK A01 T00580015  RH  074%=      5-min Rain = 0
KOD1 191402Z 26002KT 06/02 A2996 RMK A01 T00590015  RH  074%=      5-min Rain = 0
KOD1 191403Z 25002KT 06/01 A2996 RMK A01 T00580014  RH  073%=      5-min Rain = 0
KOD1 191404Z 24003KT 06/01 A2996 RMK A01 T00560013  RH  074%=      5-min Rain = 0
KOD1 191405Z 24003KT 05/01 A2996 RMK A01 T00540014  RH  075%=      5-min Rain = 0
KOD1 191406Z 24003KT 05/01 A2996 RMK A01 T00530014  RH  076%=      5-min Rain = 0
KOD1 191407Z 24003KT 05/02 A2996 RMK A01 T00520015  RH  077%=      5-min Rain = 0
KOD1 191408Z 24002KT 05/01 A2996 RMK A01 T00520014  RH  077%=      5-min Rain = 0
KOD1 191409Z 24002KT 05/01 A2996 RMK A01 T00510013  RH  076%=      5-min Rain = 0
KOD1 191410Z 24002KT 05/01 A2996 RMK A01 T00520014  RH  077%=      5-min Rain = 0
KOD1 191411Z 25001KT 05/01 A2996 RMK A01 T00520014  RH  076%=      5-min Rain = 0
KOD1 191412Z 25001KT 05/02 A2996 RMK A01 T00540015  RH  076%=      5-min Rain = 0
KOD1 191413Z 25001KT 06/02 A2996 RMK A01 T00550017  RH  076%=      5-min Rain = 0
KOD1 191414Z 25001KT 06/02 A2996 RMK A01 T00560017  RH  076%=      5-min Rain = 0
KOD1 191415Z 27001KT 06/02 A2996 RMK A01 T00570016  RH  075%=      5-min Rain = 0
KOD1 191416Z 27001KT 06/02 A2996 RMK A01 T00580016  RH  075%=      5-min Rain = 0
KOD1 191417Z 26001KT 06/02 A2996 RMK A01 T00590018  RH  075%=      5-min Rain = 0
KOD1 191418Z 28001KT 06/02 A2996 RMK A01 T00600018  RH  074%=      5-min Rain = 0
KOD1 191419Z 30001KT 06/02 A2996 RMK A01 T00610018  RH  074%=      5-min Rain = 0
KOD1 191420Z 30000KT 06/02 A2996 RMK A01 T00620017  RH  073%=      5-min Rain = 0
KOD1 191421Z 00000KT 06/02 A2995 RMK A01 T00630018  RH  073%=      5-min Rain = 0
KOD1 191422Z 00000KT 07/02 A2995 RMK A01 T00650020  RH  073%=      5-min Rain = 0
KOD1 191423Z 08000KT 07/02 A2995 RMK A01 T00670020  RH  072%=      5-min Rain = 0
KOD1 191424Z 10000KT 07/02 A2995 RMK A01 T00690022  RH  072%=      5-min Rain = 0
KOD1 191425Z 13001KT 07/02 A2995 RMK A01 T00710024  RH  072%=      5-min Rain = 0
KOD1 191426Z 11001KT 07/02 A2995 RMK A01 T00730024  RH  071%=      5-min Rain = 0
KOD1 191427Z 11001KT 07/02 A2995 RMK A01 T00730024  RH  071%=      5-min Rain = 0
KOD1 191428Z 09001KT 07/02 A2995 RMK A01 T00740023  RH  070%=      5-min Rain = 0
KOD1 191429Z 08001KT 07/02 A2995 RMK A01 T00740024  RH  071%=      5-min Rain = 0
KOD1 191430Z 06001KT 08/03 A2995 RMK A01 T00750025  RH  070%=      5-min Rain = 0
KOD1 191431Z 05001KT 08/03 A2995 RMK A01 T00760025  RH  070%=      5-min Rain = 0
KOD1 191432Z 04002KT 08/03 A2995 RMK A01 T00770026  RH  070%=      5-min Rain = 0
KOD1 191433Z 02002KT 08/03 A2995 RMK A01 T00780026  RH  070%=      5-min Rain = 0
KOD1 191434Z 04002KT 08/03 A2995 RMK A01 T00790026  RH  069%=      5-min Rain = 0
KOD1 191435Z 03003KT 08/03 A2995 RMK A01 T00800025  RH  068%=      5-min Rain = 0
KOD1 191436Z 03003KT 08/03 A2995 RMK A01 T00810026  RH  068%=      5-min Rain = 0
KOD1 191437Z 02003KT 08/03 A2995 RMK A01 T00820027  RH  068%=      5-min Rain = 0
KOD1 191438Z 03004KT 08/03 A2995 RMK A01 T00830029  RH  069%=      5-min Rain = 0
KOD1 191439Z 03004KT 08/03 A2995 RMK A01 T00840028  RH  068%=      5-min Rain = 0
KOD1 191440Z 03004KT 09/03 A2995 RMK A01 T00850027  RH  067%=      5-min Rain = 0
KOD1 191441Z 03004KT 09/03 A2995 RMK A01 T00870029  RH  067%=      5-min Rain = 0
KOD1 191442Z 04004KT 09/03 A2995 RMK A01 T00880028  RH  066%=      5-min Rain = 0
KOD1 191443Z 04004KT 09/03 A2995 RMK A01 T00880028  RH  066%=      5-min Rain = 0
KOD1 191444Z 03004KT 09/03 A2995 RMK A01 T00880028  RH  066%=      5-min Rain = 0
KOD1 191445Z 03004KT 09/03 A2995 RMK A01 T00890030  RH  066%=      5-min Rain = 0
KOD1 191446Z 03004KT 09/03 A2995 RMK A01 T00900030  RH  066%=      5-min Rain = 0
KOD1 191447Z 04004KT 09/03 A2995 RMK A01 T00900029  RH  066%=      5-min Rain = 0
KOD1 191448Z 03003KT 09/03 A2995 RMK A01 T00910033  RH  067%=      5-min Rain = 0
KOD1 191449Z 04004KT 09/03 A2995 RMK A01 T00940034  RH  066%=      5-min Rain = 0
KOD1 191450Z 05004KT 10/03 A2995 RMK A01 T00960031  RH  064%=      5-min Rain = 0
KOD1 191451Z 05004KT 10/03 A2995 RMK A01 T00970030  RH  063%=      5-min Rain = 0
KOD1 191452Z 05004KT 10/03 A2995 RMK A01 T00980029  RH  063%=      5-min Rain = 0
KOD1 191453Z 04003KT 10/03 A2995 RMK A01 T00980030  RH  062%=      5-min Rain = 0
KOD1 191454Z 06003KT 10/03 A2995 RMK A01 T01010033  RH  063%=      5-min Rain = 0
KOD1 191455Z 05002KT 10/03 A2995 RMK A01 T01030034  RH  062%=      5-min Rain = 0
KOD1 191456Z 07003KT 11/03 A2995 RMK A01 T01050034  RH  061%=      5-min Rain = 0
KOD1 191457Z 06003KT 11/03 A2995 RMK A01 T01070033  RH  060%=      5-min Rain = 0
KOD1 191458Z 06002KT 11/03 A2995 RMK A01 T01080034  RH  060%=      5-min Rain = 0
KOD1 191459Z 08003KT 11/04 A2995 RMK A01 T01110037  RH  060%=      5-min Rain = 0
KOD1 191500Z 08003KT 11/04 A2995 RMK A01 T01130035  RH  059%=      5-min Rain = 0
KOD1 191501Z 09004KT 12/04 A2995 RMK A01 T01150036  RH  058%=      5-min Rain = 0
KOD1 191502Z 08004KT 12/04 A2995 RMK A01 T01170035  RH  057%=      5-min Rain = 0
KOD1 191503Z 08003KT 12/04 A2995 RMK A01 T01180035  RH  057%=      5-min Rain = 0
KOD1 191504Z 09003KT 12/04 A2995 RMK A01 T01200036  RH  056%=      5-min Rain = 0
KOD1 191505Z 08003KT 12/04 A2995 RMK A01 T01220036  RH  056%=      5-min Rain = 0
KOD1 191506Z 08003KT 12/04 A2995 RMK A01 T01230035  RH  055%=      5-min Rain = 0
KOD1 191507Z 08003KT 13/04 A2995 RMK A01 T01250036  RH  055%=      5-min Rain = 0
KOD1 191508Z 09004KT 13/04 A2995 RMK A01 T01270038  RH  055%=      5-min Rain = 0
KOD1 191509Z 08004KT 13/04 A2995 RMK A01 T01280037  RH  054%=      5-min Rain = 0
KOD1 191510Z 08004KT 13/04 A2995 RMK A01 T01300039  RH  054%=      5-min Rain = 0
KOD1 191511Z 09004KT 13/04 A2995 RMK A01 T01310037  RH  053%=      5-min Rain = 0
KOD1 191512Z 08004KT 13/04 A2995 RMK A01 T01320037  RH  053%=      5-min Rain = 0
KOD1 191513Z 07004KT 13/04 A2995 RMK A01 T01330037  RH  052%=      5-min Rain = 0
KOD1 191514Z 07004KT 13/04 A2995 RMK A01 T01340036  RH  052%=      5-min Rain = 0
KOD1 191515Z 07005KT 13/04 A2995 RMK A01 T01340036  RH  052%=      5-min Rain = 0
KOD1 191516Z 09005KT 14/04 A2995 RMK A01 T01350037  RH  051%=      5-min Rain = 0
KOD1 191517Z 08005KT 14/04 A2995 RMK A01 T01370038  RH  051%=      5-min Rain = 0
KOD1 191518Z 08004KT 14/04 A2995 RMK A01 T01380038  RH  051%=      5-min Rain = 0
KOD1 191519Z 08005KT 14/04 A2995 RMK A01 T01380037  RH  051%=      5-min Rain = 0
KOD1 191520Z 08005KT 14/04 A2995 RMK A01 T01380038  RH  051%=      5-min Rain = 0
KOD1 191521Z 09006KT 14/04 A2995 RMK A01 T01380038  RH  051%=      5-min Rain = 0
KOD1 191522Z 09007KT 14/04 A2995 RMK A01 T01360036  RH  051%=      5-min Rain = 0
KOD1 191523Z 08005KT 14/04 A2995 RMK A01 T01360038  RH  051%=      5-min Rain = 0
KOD1 191524Z 08008KT 14/04 A2995 RMK A01 T01380038  RH  051%=      5-min Rain = 0
KOD1 191525Z 08009KT 14/04 A2995 RMK A01 T01380037  RH  050%=      5-min Rain = 0
KOD1 191526Z 08008KT 14/04 A2995 RMK A01 T01380036  RH  050%=      5-min Rain = 0
KOD1 191527Z 08007KT 14/04 A2995 RMK A01 T01380037  RH  051%=      5-min Rain = 0
KOD1 191528Z 08007KT 14/04 A2995 RMK A01 T01380037  RH  050%=      5-min Rain = 0
KOD1 191529Z 08007KT 14/04 A2995 RMK A01 T01390037  RH  050%=      5-min Rain = 0
KOD1 191530Z 08007KT 14/04 A2995 RMK A01 T01400037  RH  050%=      5-min Rain = 0
KOD1 191531Z 08006KT 14/04 A2995 RMK A01 T01410039  RH  050%=      5-min Rain = 0
KOD1 191532Z 09005KT 14/04 A2995 RMK A01 T01410038  RH  050%=      5-min Rain = 0
KOD1 191533Z 10005KT 14/04 A2995 RMK A01 T01420039  RH  050%=      5-min Rain = 0
KOD1 191534Z 09006KT 14/04 A2995 RMK A01 T01440040  RH  050%=      5-min Rain = 0
KOD1 191535Z 08007KT 15/04 A2995 RMK A01 T01450038  RH  049%=      5-min Rain = 0
KOD1 191536Z 08007KT 14/04 A2995 RMK A01 T01430037  RH  049%=      5-min Rain = 0
KOD1 191537Z 09006KT 14/04 A2995 RMK A01 T01430039  RH  049%=      5-min Rain = 0
KOD1 191538Z 09006KT 14/04 A2995 RMK A01 T01430038  RH  049%=      5-min Rain = 0
KOD1 191539Z 09006KT 14/04 A2995 RMK A01 T01440039  RH  049%=      5-min Rain = 0
KOD1 191540Z 08006KT 15/04 A2995 RMK A01 T01450041  RH  049%=      5-min Rain = 0
KOD1 191541Z 09007KT 15/04 A2995 RMK A01 T01460039  RH  049%=      5-min Rain = 0
KOD1 191542Z 08006KT 15/04 A2995 RMK A01 T01460040  RH  049%=      5-min Rain = 0
KOD1 191543Z 08007KT 15/04 A2995 RMK A01 T01490043  RH  049%=      5-min Rain = 0
KOD1 191544Z 08006KT 15/04 A2995 RMK A01 T01500041  RH  048%=      5-min Rain = 0
KOD1 191545Z 08006KT 15/04 A2995 RMK A01 T01520040  RH  047%=      5-min Rain = 0
KOD1 191546Z 09008KT 15/04 A2995 RMK A01 T01520038  RH  046%=      5-min Rain = 0
KOD1 191547Z 09009KT 15/04 A2995 RMK A01 T01520037  RH  046%=      5-min Rain = 0
KOD1 191548Z 09009KT 15/04 A2995 RMK A01 T01510037  RH  046%=      5-min Rain = 0
KOD1 191549Z 10008KT 15/04 A2995 RMK A01 T01510037  RH  047%=      5-min Rain = 0
KOD1 191550Z 10008KT 15/04 A2995 RMK A01 T01530039  RH  047%=      5-min Rain = 0
KOD1 191551Z 09008KT 15/04 A2995 RMK A01 T01540039  RH  046%=      5-min Rain = 0
KOD1 191552Z 09008KT 16/04 A2996 RMK A01 T01550040  RH  046%=      5-min Rain = 0
KOD1 191553Z 09009KT 16/04 A2996 RMK A01 T01560039  RH  045%=      5-min Rain = 0
KOD1 191554Z 09008KT 16/04 A2996 RMK A01 T01560039  RH  046%=      5-min Rain = 0
KOD1 191555Z 09008KT 16/04 A2996 RMK A01 T01570039  RH  045%=      5-min Rain = 0
KOD1 191556Z 09010KT 16/04 A2996 RMK A01 T01550035  RH  045%=      5-min Rain = 0
KOD1 191557Z 09009KT 15/04 A2996 RMK A01 T01540037  RH  046%=      5-min Rain = 0
KOD1 191558Z 09009KT 15/04 A2996 RMK A01 T01540038  RH  046%=      5-min Rain = 0
KOD1 191559Z 10010KT 16/04 A2996 RMK A01 T01550038  RH  045%=      5-min Rain = 0
KOD1 191600Z 10009KT 16/04 A2996 RMK A01 T01550038  RH  045%=      5-min Rain = 0
KOD1 191601Z 10010KT 15/04 A2996 RMK A01 T01540038  RH  046%=      5-min Rain = 0
KOD1 191602Z 10010KT 15/04 A2996 RMK A01 T01540038  RH  046%=      5-min Rain = 0
KOD1 191603Z 09009KT 15/04 A2996 RMK A01 T01510037  RH  046%=      5-min Rain = 0
KOD1 191604Z 09008KT 15/04 A2996 RMK A01 T01520040  RH  047%=      5-min Rain = 0
KOD1 191605Z 10009KT 15/04 A2996 RMK A01 T01540039  RH  046%=      5-min Rain = 0
KOD1 191606Z 09009KT 15/04 A2996 RMK A01 T01530039  RH  046%=      5-min Rain = 0
KOD1 191607Z 09009KT 15/04 A2996 RMK A01 T01540040  RH  047%=      5-min Rain = 0
KOD1 191608Z 10009KT 16/04 A2996 RMK A01 T01560041  RH  046%=      5-min Rain = 0
KOD1 191609Z 11009KT 16/04 A2996 RMK A01 T01580043  RH  046%=      5-min Rain = 0
KOD1 191610Z 11008KT 16/04 A2996 RMK A01 T01580042  RH  046%=      5-min Rain = 0
KOD1 191611Z 10008KT 16/04 A2996 RMK A01 T01580043  RH  046%=      5-min Rain = 0
KOD1 191612Z 09009KT 16/04 A2996 RMK A01 T01600044  RH  046%=      5-min Rain = 0
KOD1 191613Z 11010KT 16/04 A2996 RMK A01 T01610043  RH  045%=      5-min Rain = 0
KOD1 191614Z 11009KT 16/04 A2996 RMK A01 T01590043  RH  046%=      5-min Rain = 0
KOD1 191615Z 10008KT 16/04 A2996 RMK A01 T01580044  RH  046%=      5-min Rain = 0
KOD1 191616Z 11010KT 16/05 A2996 RMK A01 T01600045  RH  046%=      5-min Rain = 0
KOD1 191617Z 10009KT 16/05 A2996 RMK A01 T01610045  RH  046%=      5-min Rain = 0
KOD1 191618Z 10009KT 16/05 A2996 RMK A01 T01620046  RH  046%=      5-min Rain = 0
KOD1 191619Z 10009KT 16/05 A2996 RMK A01 T01640046  RH  046%=      5-min Rain = 0
KOD1 191620Z 11009KT 16/05 A2996 RMK A01 T01640046  RH  046%=      5-min Rain = 0
KOD1 191621Z 10009KT 17/05 A2996 RMK A01 T01660046  RH  045%=      5-min Rain = 0
KOD1 191622Z 11010KT 17/05 A2996 RMK A01 T01690046  RH  044%=      5-min Rain = 0
KOD1 191623Z 11011KT 17/04 A2996 RMK A01 T01680043  RH  043%=      5-min Rain = 0
KOD1 191624Z 11011KT 17/04 A2996 RMK A01 T01670041  RH  043%=      5-min Rain = 0
KOD1 191625Z 11010KT 17/04 A2996 RMK A01 T01680042  RH  043%=      5-min Rain = 0
KOD1 191626Z 10010KT 17/04 A2996 RMK A01 T01700041  RH  042%=      5-min Rain = 0
KOD1 191627Z 10008KT 17/04 A2996 RMK A01 T01720043  RH  042%=      5-min Rain = 0
KOD1 191628Z 10007KT 18/05 A2996 RMK A01 T01750046  RH  042%=      5-min Rain = 0
KOD1 191629Z 10007KT 18/05 A2996 RMK A01 T01760046  RH  042%=      5-min Rain = 0
KOD1 191630Z 09008KT 18/05 A2996 RMK A01 T01770046  RH  042%=      5-min Rain = 0
KOD1 191631Z 11007KT 18/05 A2996 RMK A01 T01760046  RH  042%=      5-min Rain = 0
KOD1 191632Z 12008KT 18/05 A2996 RMK A01 T01770046  RH  042%=      5-min Rain = 0
KOD1 191633Z 12008KT 18/05 A2996 RMK A01 T01750046  RH  042%=      5-min Rain = 0
KOD1 191634Z 11007KT 18/05 A2996 RMK A01 T01750047  RH  043%=      5-min Rain = 0
KOD1 191635Z 11007KT 18/05 A2996 RMK A01 T01780048  RH  042%=      5-min Rain = 0
KOD1 191636Z 11007KT 18/05 A2996 RMK A01 T01820048  RH  041%=      5-min Rain = 0
KOD1 191637Z 12009KT 18/05 A2996 RMK A01 T01830047  RH  041%=      5-min Rain = 0
KOD1 191638Z 11007KT 18/05 A2996 RMK A01 T01810045  RH  041%=      5-min Rain = 0
KOD1 191639Z 11007KT 18/05 A2996 RMK A01 T01790046  RH  042%=      5-min Rain = 0
KOD1 191640Z 11008KT 18/05 A2996 RMK A01 T01810046  RH  041%=      5-min Rain = 0
KOD1 191641Z 12010KT 18/04 A2996 RMK A01 T01800043  RH  040%=      5-min Rain = 0
KOD1 191642Z 11011KT 18/04 A2996 RMK A01 T01770042  RH  041%=      5-min Rain = 0
KOD1 191643Z 10010KT 18/04 A2996 RMK A01 T01770042  RH  041%=      5-min Rain = 0
KOD1 191644Z 11010KT 18/04 A2996 RMK A01 T01790044  RH  041%=      5-min Rain = 0
KOD1 191645Z 12011KT 18/04 A2996 RMK A01 T01790043  RH  040%=      5-min Rain = 0
KOD1 191646Z 12011KT 18/04 A2996 RMK A01 T01800041  RH  040%=      5-min Rain = 0
KOD1 191647Z 10010KT 18/04 A2996 RMK A01 T01790041  RH  040%=      5-min Rain = 0
KOD1 191648Z 11009KT 18/04 A2996 RMK A01 T01810044  RH  040%=      5-min Rain = 0
KOD1 191649Z 10009KT 19/05 A2996 RMK A01 T01860045  RH  039%=      5-min Rain = 0
KOD1 191650Z 12010KT 19/04 A2995 RMK A01 T01850044  RH  039%=      5-min Rain = 0
KOD1 191651Z 12011KT 18/05 A2995 RMK A01 T01840045  RH  040%=      5-min Rain = 0
KOD1 191652Z 12010KT 18/05 A2995 RMK A01 T01810045  RH  041%=      5-min Rain = 0
KOD1 191653Z 13008KT 18/05 A2995 RMK A01 T01830047  RH  041%=      5-min Rain = 0
KOD1 191654Z 12011KT 19/05 A2995 RMK A01 T01850045  RH  040%=      5-min Rain = 0
KOD1 191655Z 12012KT 19/04 A2995 RMK A01 T01850044  RH  039%=      5-min Rain = 0
KOD1 191656Z 12011KT 18/04 A2995 RMK A01 T01840044  RH  040%=      5-min Rain = 0
KOD1 191657Z 12009KT 18/05 A2995 RMK A01 T01840045  RH  040%=      5-min Rain = 0
KOD1 191658Z 11009KT 19/05 A2995 RMK A01 T01870045  RH  039%=      5-min Rain = 0
KOD1 191659Z 12009KT 19/04 A2995 RMK A01 T01890044  RH  039%=      5-min Rain = 0
KOD1 191700Z 12012KT 19/04 A2995 RMK A01 T01870043  RH  038%=      5-min Rain = 0
KOD1 191701Z 13011KT 19/04 A2995 RMK A01 T01850043  RH  039%=      5-min Rain = 0
KOD1 191702Z 12010KT 19/04 A2995 RMK A01 T01850044  RH  039%=      5-min Rain = 0
KOD1 191703Z 11010KT 18/05 A2995 RMK A01 T01830045  RH  040%=      5-min Rain = 0
KOD1 191704Z 12011KT 19/05 A2995 RMK A01 T01850047  RH  040%=      5-min Rain = 0
KOD1 191705Z 12012KT 19/05 A2995 RMK A01 T01850046  RH  040%=      5-min Rain = 0
KOD1 191706Z 12011KT 19/05 A2995 RMK A01 T01850045  RH  039%=      5-min Rain = 0
KOD1 191707Z 12011KT 18/05 A2995 RMK A01 T01840045  RH  040%=      5-min Rain = 0
KOD1 191708Z 12011KT 18/05 A2995 RMK A01 T01840046  RH  040%=      5-min Rain = 0
KOD1 191709Z 12010KT 18/05 A2995 RMK A01 T01840046  RH  040%=      5-min Rain = 0
KOD1 191710Z 12011KT 19/05 A2995 RMK A01 T01850048  RH  040%=      5-min Rain = 0
KOD1 191711Z 12011KT 19/05 A2995 RMK A01 T01850047  RH  040%=      5-min Rain = 0
KOD1 191712Z 12012KT 19/05 A2995 RMK A01 T01860047  RH  040%=      5-min Rain = 0
KOD1 191713Z 12011KT 19/05 A2995 RMK A01 T01870046  RH  039%=      5-min Rain = 0
KOD1 191714Z 13011KT 19/05 A2995 RMK A01 T01880045  RH  039%=      5-min Rain = 0
KOD1 191715Z 13011KT 19/05 A2995 RMK A01 T01880045  RH  039%=      5-min Rain = 0
KOD1 191716Z 12012KT 19/04 A2995 RMK A01 T01880043  RH  038%=      5-min Rain = 0
KOD1 191717Z 11011KT 19/04 A2995 RMK A01 T01900043  RH  038%=      5-min Rain = 0
KOD1 191718Z 12010KT 19/05 A2994 RMK A01 T01900045  RH  038%=      5-min Rain = 0
KOD1 191719Z 12009KT 19/05 A2994 RMK A01 T01920046  RH  038%=      5-min Rain = 0
KOD1 191720Z 12011KT 19/05 A2994 RMK A01 T01940046  RH  038%=      5-min Rain = 0
KOD1 191721Z 12012KT 19/04 A2994 RMK A01 T01920044  RH  038%=      5-min Rain = 0
KOD1 191722Z 12010KT 19/05 A2994 RMK A01 T01920045  RH  038%=      5-min Rain = 0
KOD1 191723Z 14010KT 20/05 A2994 RMK A01 T01950046  RH  037%=      5-min Rain = 0
KOD1 191724Z 14009KT 20/05 A2994 RMK A01 T01960045  RH  037%=      5-min Rain = 0
KOD1 191725Z 15010KT 20/05 A2994 RMK A01 T01970045  RH  037%=      5-min Rain = 0
KOD1 191726Z 14012KT 20/04 A2994 RMK A01 T01950044  RH  037%=      5-min Rain = 0
KOD1 191727Z 15012KT 19/04 A2994 RMK A01 T01940043  RH  037%=      5-min Rain = 0
KOD1 191728Z 15011KT 19/04 A2994 RMK A01 T01930042  RH  037%=      5-min Rain = 0
KOD1 191729Z 15012KT 19/04 A2994 RMK A01 T01920044  RH  038%=      5-min Rain = 0
KOD1 191730Z 15011KT 19/05 A2994 RMK A01 T01920045  RH  038%=      5-min Rain = 0
KOD1 191731Z 15010KT 19/05 A2994 RMK A01 T01930045  RH  038%=      5-min Rain = 0
KOD1 191732Z 15011KT 20/05 A2994 RMK A01 T01950045  RH  037%=      5-min Rain = 0
KOD1 191733Z 15010KT 20/04 A2993 RMK A01 T01960044  RH  037%=      5-min Rain = 0
KOD1 191734Z 14010KT 20/05 A2993 RMK A01 T01970045  RH  037%=      5-min Rain = 0
KOD1 191735Z 15011KT 20/04 A2993 RMK A01 T02010043  RH  035%=      5-min Rain = 0
KOD1 191736Z 14012KT 20/04 A2993 RMK A01 T02020039  RH  034%=      5-min Rain = 0
KOD1 191737Z 14012KT 20/04 A2993 RMK A01 T02030040  RH  034%=      5-min Rain = 0
KOD1 191738Z 14014KT 20/04 A2993 RMK A01 T02030037  RH  033%=      5-min Rain = 0
KOD1 191739Z 14012KT 20/04 A2993 RMK A01 T02020037  RH  034%=      5-min Rain = 0
KOD1 191740Z 14013KT 20/04 A2993 RMK A01 T02030036  RH  033%=      5-min Rain = 0
KOD1 191741Z 13014KT 20/04 A2993 RMK A01 T02020036  RH  033%=      5-min Rain = 0
KOD1 191742Z 14013KT 20/04 A2993 RMK A01 T02010036  RH  034%=      5-min Rain = 0
KOD1 191743Z 15013KT 20/04 A2993 RMK A01 T02030038  RH  034%=      5-min Rain = 0
KOD1 191744Z 14011KT 20/04 A2993 RMK A01 T02030039  RH  034%=      5-min Rain = 0
KOD1 191745Z 14013KT 21/04 A2993 RMK A01 T02060039  RH  033%=      5-min Rain = 0
KOD1 191746Z 14012KT 20/04 A2993 RMK A01 T02040039  RH  034%=      5-min Rain = 0
KOD1 191747Z 14013KT 20/04 A2993 RMK A01 T02040039  RH  034%=      5-min Rain = 0
KOD1 191748Z 14009KT 20/04 A2993 RMK A01 T02030042  RH  034%=      5-min Rain = 0
KOD1 191749Z 15012KT 21/04 A2992 RMK A01 T02050043  RH  034%=      5-min Rain = 0
KOD1 191750Z 15013KT 21/04 A2992 RMK A01 T02060043  RH  034%=      5-min Rain = 0
KOD1 191751Z 16012KT 21/04 A2992 RMK A01 T02050043  RH  034%=      5-min Rain = 0
KOD1 191752Z 16011KT 21/04 A2992 RMK A01 T02050044  RH  035%=      5-min Rain = 0
KOD1 191753Z 15014KT 21/04 A2992 RMK A01 T02080044  RH  034%=      5-min Rain = 0
KOD1 191754Z 16015KT 21/04 A2992 RMK A01 T02080043  RH  034%=      5-min Rain = 0
KOD1 191755Z 16014KT 21/04 A2992 RMK A01 T02050042  RH  034%=      5-min Rain = 0
KOD1 191756Z 16012KT 20/04 A2992 RMK A01 T02040042  RH  035%=      5-min Rain = 0
KOD1 191757Z 16011KT 20/04 A2992 RMK A01 T02040043  RH  035%=      5-min Rain = 0
KOD1 191758Z 15011KT 21/04 A2992 RMK A01 T02070044  RH  034%=      5-min Rain = 0
KOD1 191759Z 16011KT 21/05 A2992 RMK A01 T02080045  RH  034%=      5-min Rain = 0
KOD1 191800Z 16012KT 21/05 A2992 RMK A01 T02070045  RH  035%=      5-min Rain = 0
KOD1 191801Z 16012KT 21/05 A2992 RMK A01 T02080046  RH  035%=      5-min Rain = 0
KOD1 191802Z 16012KT 21/05 A2992 RMK A01 T02090046  RH  034%=      5-min Rain = 0
KOD1 191803Z 16013KT 21/05 A2992 RMK A01 T02120045  RH  033%=      5-min Rain = 0
KOD1 191804Z 15013KT 21/05 A2992 RMK A01 T02100045  RH  034%=      5-min Rain = 0
KOD1 191805Z 15010KT 21/05 A2992 RMK A01 T02090047  RH  034%=      5-min Rain = 0
KOD1 191806Z 16011KT 21/05 A2992 RMK A01 T02110048  RH  034%=      5-min Rain = 0
KOD1 191807Z 17012KT 21/05 A2992 RMK A01 T02120049  RH  034%=      5-min Rain = 0
KOD1 191808Z 17012KT 21/05 A2992 RMK A01 T02120048  RH  034%=      5-min Rain = 0
KOD1 191809Z 16010KT 21/05 A2992 RMK A01 T02100047  RH  034%=      5-min Rain = 0
KOD1 191810Z 17012KT 21/05 A2992 RMK A01 T02110048  RH  034%=      5-min Rain = 0
KOD1 191811Z 17012KT 21/05 A2992 RMK A01 T02120047  RH  034%=      5-min Rain = 0
KOD1 191812Z 17010KT 21/05 A2992 RMK A01 T02110048  RH  034%=      5-min Rain = 0
KOD1 191813Z 16011KT 21/05 A2992 RMK A01 T02100049  RH  035%=      5-min Rain = 0
KOD1 191814Z 16012KT 21/05 A2992 RMK A01 T02120048  RH  034%=      5-min Rain = 0
KOD1 191815Z 17012KT 21/05 A2992 RMK A01 T02130047  RH  034%=      5-min Rain = 0
KOD1 191816Z 16011KT 21/05 A2992 RMK A01 T02140047  RH  034%=      5-min Rain = 0
KOD1 191817Z 16011KT 21/05 A2992 RMK A01 T02140047  RH  034%=      5-min Rain = 0
KOD1 191818Z 17011KT 21/05 A2992 RMK A01 T02140048  RH  034%=      5-min Rain = 0
KOD1 191819Z 16012KT 22/05 A2992 RMK A01 T02160048  RH  034%=      5-min Rain = 0
KOD1 191820Z 16012KT 22/05 A2991 RMK A01 T02170048  RH  033%=      5-min Rain = 0
KOD1 191821Z 16013KT 22/05 A2991 RMK A01 T02170047  RH  033%=      5-min Rain = 0
KOD1 191822Z 15011KT 22/05 A2991 RMK A01 T02170046  RH  033%=      5-min Rain = 0
KOD1 191823Z 16011KT 22/05 A2991 RMK A01 T02190048  RH  033%=      5-min Rain = 0
KOD1 191824Z 15011KT 22/05 A2991 RMK A01 T02200046  RH  032%=      5-min Rain = 0
KOD1 191825Z 16012KT 22/05 A2991 RMK A01 T02190047  RH  032%=      5-min Rain = 0
KOD1 191826Z 18010KT 22/05 A2991 RMK A01 T02200045  RH  032%=      5-min Rain = 0
KOD1 191827Z 17013KT 22/04 A2991 RMK A01 T02200044  RH  032%=      5-min Rain = 0
KOD1 191828Z 16013KT 22/04 A2991 RMK A01 T02200042  RH  031%=      5-min Rain = 0
KOD1 191829Z 16013KT 22/04 A2991 RMK A01 T02180042  RH  032%=      5-min Rain = 0
KOD1 191830Z 16012KT 22/04 A2991 RMK A01 T02180043  RH  032%=      5-min Rain = 0
KOD1 191831Z 16010KT 22/04 A2991 RMK A01 T02190042  RH  031%=      5-min Rain = 0
KOD1 191832Z 17009KT 22/04 A2991 RMK A01 T02200044  RH  031%=      5-min Rain = 0
KOD1 191833Z 17012KT 22/04 A2991 RMK A01 T02240043  RH  031%=      5-min Rain = 0
KOD1 191834Z 16009KT 22/04 A2991 RMK A01 T02220042  RH  031%=      5-min Rain = 0
KOD1 191835Z 18010KT 22/04 A2991 RMK A01 T02220043  RH  031%=      5-min Rain = 0
KOD1 191836Z 17011KT 22/04 A2991 RMK A01 T02240044  RH  031%=      5-min Rain = 0
KOD1 191837Z 16011KT 23/04 A2991 RMK A01 T02260044  RH  030%=      5-min Rain = 0
KOD1 191838Z 16011KT 23/04 A2991 RMK A01 T02270044  RH  030%=      5-min Rain = 0
KOD1 191839Z 16009KT 23/04 A2991 RMK A01 T02250043  RH  030%=      5-min Rain = 0
KOD1 191840Z 17012KT 23/04 A2991 RMK A01 T02250044  RH  031%=      5-min Rain = 0
KOD1 191841Z 17011KT 22/04 A299 RMK A01 T02240044  RH  031%=      5-min Rain = 0
KOD1 191842Z 16011KT 22/04 A299 RMK A01 T02220044  RH  031%=      5-min Rain = 0
KOD1 191843Z 17009KT 22/05 A299 RMK A01 T02230045  RH  031%=      5-min Rain = 0
KOD1 191844Z 16012KT 23/05 A299 RMK A01 T02260045  RH  031%=      5-min Rain = 0
KOD1 191845Z 16011KT 23/05 A299 RMK A01 T02270045  RH  030%=      5-min Rain = 0
KOD1 191846Z 16013KT 23/04 A299 RMK A01 T02280044  RH  030%=      5-min Rain = 0
KOD1 191847Z 16011KT 23/04 A299 RMK A01 T02260044  RH  030%=      5-min Rain = 0
KOD1 191848Z 16011KT 23/05 A299 RMK A01 T02260045  RH  031%=      5-min Rain = 0
KOD1 191849Z 17009KT 23/05 A299 RMK A01 T02290048  RH  031%=      5-min Rain = 0
KOD1 191850Z 18014KT 23/05 A299 RMK A01 T02310049  RH  031%=      5-min Rain = 0
KOD1 191851Z 18013KT 23/05 A299 RMK A01 T02300048  RH  031%=      5-min Rain = 0
KOD1 191852Z 17015KT 23/05 A299 RMK A01 T02280048  RH  031%=      5-min Rain = 0
KOD1 191853Z 18012KT 23/05 A299 RMK A01 T02260047  RH  031%=      5-min Rain = 0
KOD1 191854Z 17012G17KT 23/05 A299 RMK A01 T02250049  RH  032%=      5-min Rain = 0
KOD1 191855Z 17013KT 23/05 A299 RMK A01 T02270049  RH  031%=      5-min Rain = 0
KOD1 191856Z 16014KT 23/05 A2989 RMK A01 T02280048  RH  031%=      5-min Rain = 0
KOD1 191857Z 16012KT 23/05 A2989 RMK A01 T02290049  RH  031%=      5-min Rain = 0
KOD1 191858Z 17014KT 23/05 A2989 RMK A01 T02310050  RH  031%=      5-min Rain = 0
KOD1 191859Z 17016KT 23/05 A2989 RMK A01 T02320048  RH  030%=      5-min Rain = 0
KOD1 191900Z 17016KT 23/05 A2989 RMK A01 T02320048  RH  030%=      5-min Rain = 0
KOD1 191901Z 17016KT 23/05 A2989 RMK A01 T02320049  RH  030%=      5-min Rain = 0
KOD1 191902Z 17014KT 23/05 A2989 RMK A01 T02320047  RH  030%=      5-min Rain = 0
KOD1 191903Z 17014KT 23/05 A2989 RMK A01 T02320049  RH  031%=      5-min Rain = 0
KOD1 191904Z 16012KT 23/05 A2989 RMK A01 T02310050  RH  031%=      5-min Rain = 0
KOD1 191905Z 17012KT 23/05 A2989 RMK A01 T02330051  RH  031%=      5-min Rain = 0
KOD1 191906Z 17014KT 24/05 A2989 RMK A01 T02360050  RH  030%=      5-min Rain = 0
KOD1 191907Z 15014KT 24/05 A2989 RMK A01 T02350048  RH  030%=      5-min Rain = 0
KOD1 191908Z 15014KT 23/05 A2989 RMK A01 T02340049  RH  030%=      5-min Rain = 0
KOD1 191909Z 16013KT 23/05 A2989 RMK A01 T02340049  RH  030%=      5-min Rain = 0
KOD1 191910Z 16012KT 24/05 A2989 RMK A01 T02350046  RH  029%=      5-min Rain = 0
KOD1 191911Z 17014KT 24/05 A2988 RMK A01 T02360047  RH  029%=      5-min Rain = 0
KOD1 191912Z 17015KT 24/05 A2988 RMK A01 T02360047  RH  029%=      5-min Rain = 0
KOD1 191913Z 15012KT 24/05 A2988 RMK A01 T02350046  RH  029%=      5-min Rain = 0
KOD1 191914Z 17013KT 24/05 A2988 RMK A01 T02350046  RH  029%=      5-min Rain = 0
KOD1 191915Z 16012KT 24/05 A2988 RMK A01 T02360046  RH  029%=      5-min Rain = 0
KOD1 191916Z 17011KT 24/05 A2988 RMK A01 T02400046  RH  028%=      5-min Rain = 0
KOD1 191917Z 16014KT 24/05 A2988 RMK A01 T02410045  RH  028%=      5-min Rain = 0
KOD1 191918Z 16016KT 24/04 A2988 RMK A01 T02390044  RH  028%=      5-min Rain = 0
KOD1 191919Z 16016KT 24/04 A2988 RMK A01 T02370043  RH  028%=      5-min Rain = 0
KOD1 191920Z 16012KT 24/04 A2988 RMK A01 T02360042  RH  028%=      5-min Rain = 0
KOD1 191921Z 16013KT 24/04 A2988 RMK A01 T02380044  RH  028%=      5-min Rain = 0
KOD1 191922Z 17013KT 24/04 A2988 RMK A01 T02400043  RH  028%=      5-min Rain = 0
KOD1 191923Z 16012KT 24/05 A2988 RMK A01 T02410045  RH  028%=      5-min Rain = 0
KOD1 191924Z 16013KT 24/04 A2988 RMK A01 T02410044  RH  028%=      5-min Rain = 0
KOD1 191925Z 16015KT 24/04 A2988 RMK A01 T02400042  RH  028%=      5-min Rain = 0
KOD1 191926Z 16018KT 24/04 A2988 RMK A01 T02410042  RH  027%=      5-min Rain = 0
KOD1 191927Z 16014KT 24/04 A2987 RMK A01 T02400041  RH  027%=      5-min Rain = 0
KOD1 191928Z 16013KT 24/04 A2987 RMK A01 T02400041  RH  028%=      5-min Rain = 0
KOD1 191929Z 16013KT 24/04 A2987 RMK A01 T02400042  RH  028%=      5-min Rain = 0
KOD1 191930Z 15015KT 24/04 A2987 RMK A01 T02410043  RH  028%=      5-min Rain = 0
KOD1 191931Z 15014KT 24/04 A2987 RMK A01 T02420043  RH  028%=      5-min Rain = 0
KOD1 191932Z 16014KT 24/04 A2987 RMK A01 T02410042  RH  027%=      5-min Rain = 0
KOD1 191933Z 17014KT 24/04 A2987 RMK A01 T02420042  RH  027%=      5-min Rain = 0
KOD1 191934Z 15014KT 24/04 A2987 RMK A01 T02440042  RH  027%=      5-min Rain = 0
KOD1 191935Z 16017KT 25/04 A2987 RMK A01 T02450039  RH  026%=      5-min Rain = 0
KOD1 191936Z 16016KT 24/04 A2987 RMK A01 T02420039  RH  027%=      5-min Rain = 0
KOD1 191937Z 16015KT 24/04 A2987 RMK A01 T02400039  RH  027%=      5-min Rain = 0
KOD1 191938Z 16016KT 24/04 A2987 RMK A01 T02390038  RH  027%=      5-min Rain = 0
KOD1 191939Z 18017KT 24/04 A2987 RMK A01 T02400038  RH  027%=      5-min Rain = 0
KOD1 191940Z 17014KT 24/04 A2987 RMK A01 T02400036  RH  027%=      5-min Rain = 0
KOD1 191941Z 17016KT 24/04 A2987 RMK A01 T02390037  RH  027%=      5-min Rain = 0
KOD1 191942Z 17016KT 24/04 A2987 RMK A01 T02400038  RH  027%=      5-min Rain = 0
KOD1 191943Z 16014KT 24/04 A2987 RMK A01 T02410038  RH  027%=      5-min Rain = 0
KOD1 191944Z 15014KT 24/04 A2987 RMK A01 T02430039  RH  027%=      5-min Rain = 0
KOD1 191945Z 16012KT 24/04 A2987 RMK A01 T02420038  RH  027%=      5-min Rain = 0
KOD1 191946Z 17012G17KT 24/04 A2986 RMK A01 T02430040  RH  027%=      5-min Rain = 0
KOD1 191947Z 17015KT 25/04 A2986 RMK A01 T02450039  RH  026%=      5-min Rain = 0
KOD1 191948Z 17014KT 25/04 A2986 RMK A01 T02450039  RH  026%=      5-min Rain = 0
KOD1 191949Z 18015KT 24/04 A2986 RMK A01 T02440039  RH  026%=      5-min Rain = 0
KOD1 191950Z 18016KT 24/04 A2986 RMK A01 T02430039  RH  027%=      5-min Rain = 0
KOD1 191951Z 17015KT 24/04 A2986 RMK A01 T02440040  RH  027%=      5-min Rain = 0
KOD1 191952Z 18013KT 24/04 A2986 RMK A01 T02440039  RH  026%=      5-min Rain = 0
KOD1 191953Z 17015KT 24/04 A2986 RMK A01 T02440039  RH  027%=      5-min Rain = 0
KOD1 191954Z 16013KT 24/04 A2986 RMK A01 T02430041  RH  027%=      5-min Rain = 0
KOD1 191955Z 17015KT 24/04 A2986 RMK A01 T02430042  RH  027%=      5-min Rain = 0
KOD1 191956Z 17014KT 24/04 A2986 RMK A01 T02440043  RH  027%=      5-min Rain = 0
KOD1 191957Z 17015KT 24/04 A2986 RMK A01 T02440042  RH  027%=      5-min Rain = 0
KOD1 191958Z 17014KT 24/04 A2986 RMK A01 T02440042  RH  027%=      5-min Rain = 0
KOD1 191959Z 18016KT 24/04 A2985 RMK A01 T02430042  RH  027%=      5-min Rain = 0
KOD1 192000Z 17014KT 24/04 A2985 RMK A01 T02430042  RH  027%=      5-min Rain = 0
KOD1 192001Z 16011KT 24/04 A2985 RMK A01 T02420042  RH  027%=      5-min Rain = 0
KOD1 192002Z 16012KT 25/04 A2985 RMK A01 T02450044  RH  027%=      5-min Rain = 0
KOD1 192003Z 16012KT 25/04 A2985 RMK A01 T02470042  RH  027%=      5-min Rain = 0
KOD1 192004Z 18014KT 25/04 A2985 RMK A01 T02460042  RH  027%=      5-min Rain = 0
KOD1 192005Z 17013KT 25/04 A2985 RMK A01 T02460042  RH  027%=      5-min Rain = 0
KOD1 192006Z 16015KT 25/04 A2985 RMK A01 T02460043  RH  027%=      5-min Rain = 0
KOD1 192007Z 15013KT 25/04 A2985 RMK A01 T02460044  RH  027%=      5-min Rain = 0
KOD1 192008Z 16014KT 25/04 A2985 RMK A01 T02470044  RH  027%=      5-min Rain = 0
KOD1 192009Z 16015KT 25/04 A2985 RMK A01 T02470044  RH  027%=      5-min Rain = 0
KOD1 192010Z 16013KT 25/04 A2985 RMK A01 T02460044  RH  027%=      5-min Rain = 0
KOD1 192011Z 16016KT 25/04 A2985 RMK A01 T02460044  RH  027%=      5-min Rain = 0
KOD1 192012Z 16016KT 25/04 A2985 RMK A01 T02460044  RH  027%=      5-min Rain = 0
KOD1 192013Z 16013KT 25/04 A2985 RMK A01 T02450044  RH  027%=      5-min Rain = 0
KOD1 192014Z 15015KT 25/05 A2985 RMK A01 T02460045  RH  027%=      5-min Rain = 0
KOD1 192015Z 15015KT 25/04 A2985 RMK A01 T02470043  RH  027%=      5-min Rain = 0
KOD1 192016Z 15015KT 25/04 A2985 RMK A01 T02470044  RH  027%=      5-min Rain = 0
KOD1 192017Z 16016KT 25/04 A2984 RMK A01 T02490043  RH  026%=      5-min Rain = 0
KOD1 192018Z 16017KT 25/04 A2984 RMK A01 T02480042  RH  026%=      5-min Rain = 0
KOD1 192019Z 16016KT 25/04 A2984 RMK A01 T02470041  RH  026%=      5-min Rain = 0
KOD1 192020Z 16016KT 25/04 A2984 RMK A01 T02470042  RH  027%=      5-min Rain = 0
KOD1 192021Z 16015KT 25/04 A2984 RMK A01 T02470043  RH  027%=      5-min Rain = 0
KOD1 192022Z 16019KT 25/04 A2984 RMK A01 T02480042  RH  026%=      5-min Rain = 0
KOD1 192023Z 16018KT 25/04 A2984 RMK A01 T02480041  RH  026%=      5-min Rain = 0
KOD1 192024Z 17015KT 25/04 A2984 RMK A01 T02480042  RH  026%=      5-min Rain = 0
KOD1 192025Z 18016KT 25/04 A2984 RMK A01 T02490043  RH  026%=      5-min Rain = 0
KOD1 192026Z 18016KT 25/04 A2984 RMK A01 T02490043  RH  026%=      5-min Rain = 0
KOD1 192027Z 17014KT 25/04 A2984 RMK A01 T02500044  RH  026%=      5-min Rain = 0
KOD1 192028Z 17014KT 25/05 A2984 RMK A01 T02510045  RH  027%=      5-min Rain = 0
KOD1 192029Z 16019KT 25/05 A2984 RMK A01 T02510045  RH  026%=      5-min Rain = 0
KOD1 192030Z 16016KT 25/05 A2984 RMK A01 T02490045  RH  027%=      5-min Rain = 0
KOD1 192031Z 17015KT 25/05 A2984 RMK A01 T02500046  RH  027%=      5-min Rain = 0
KOD1 192032Z 16015KT 25/05 A2984 RMK A01 T02490046  RH  027%=      5-min Rain = 0
KOD1 192033Z 16016KT 25/05 A2984 RMK A01 T02510046  RH  027%=      5-min Rain = 0
KOD1 192034Z 17017KT 25/05 A2984 RMK A01 T02510046  RH  027%=      5-min Rain = 0
KOD1 192035Z 17015KT 25/05 A2984 RMK A01 T02510047  RH  027%=      5-min Rain = 0
KOD1 192036Z 16014KT 25/05 A2983 RMK A01 T02510047  RH  027%=      5-min Rain = 0
KOD1 192037Z 16017KT 25/05 A2983 RMK A01 T02520047  RH  027%=      5-min Rain = 0
KOD1 192038Z 16018KT 25/05 A2983 RMK A01 T02520046  RH  026%=      5-min Rain = 0
KOD1 192039Z 17016G21KT 25/05 A2983 RMK A01 T02530046  RH  026%=      5-min Rain = 0
KOD1 192040Z 17018KT 25/04 A2983 RMK A01 T02530043  RH  026%=      5-min Rain = 0
KOD1 192041Z 15018G23KT 25/04 A2983 RMK A01 T02530044  RH  026%=      5-min Rain = 0
KOD1 192042Z 16019KT 25/04 A2983 RMK A01 T02540044  RH  026%=      5-min Rain = 0
KOD1 192043Z 16018KT 25/04 A2983 RMK A01 T02540044  RH  026%=      5-min Rain = 0
KOD1 192044Z 16016KT 25/05 A2983 RMK A01 T02530045  RH  026%=      5-min Rain = 0
KOD1 192045Z 16014KT 25/05 A2983 RMK A01 T02530046  RH  026%=      5-min Rain = 0
KOD1 192046Z 16015KT 26/05 A2983 RMK A01 T02560046  RH  026%=      5-min Rain = 0
KOD1 192047Z 17016KT 26/05 A2983 RMK A01 T02580045  RH  025%=      5-min Rain = 0
KOD1 192048Z 17015KT 26/04 A2983 RMK A01 T02570040  RH  025%=      5-min Rain = 0
KOD1 192049Z 17017KT 26/04 A2983 RMK A01 T02570043  RH  025%=      5-min Rain = 0
KOD1 192050Z 17017KT 26/05 A2983 RMK A01 T02560045  RH  026%=      5-min Rain = 0
KOD1 192051Z 17015KT 26/04 A2983 RMK A01 T02560042  RH  025%=      5-min Rain = 0
KOD1 192052Z 16019KT 26/04 A2983 RMK A01 T02560043  RH  025%=      5-min Rain = 0
KOD1 192053Z 17020KT 25/04 A2983 RMK A01 T02540042  RH  025%=      5-min Rain = 0
KOD1 192054Z 17016KT 25/04 A2983 RMK A01 T02530042  RH  026%=      5-min Rain = 0
KOD1 192055Z 17016KT 25/04 A2983 RMK A01 T02540041  RH  025%=      5-min Rain = 0
KOD1 192056Z 17018KT 26/04 A2983 RMK A01 T02550041  RH  025%=      5-min Rain = 0
KOD1 192057Z 17019KT 26/04 A2983 RMK A01 T02550042  RH  025%=      5-min Rain = 0
KOD1 192058Z 16019KT 26/04 A2983 RMK A01 T02550041  RH  025%=      5-min Rain = 0
KOD1 192059Z 16021KT 26/04 A2983 RMK A01 T02550038  RH  025%=      5-min Rain = 0
KOD1 192100Z 17018KT 25/04 A2983 RMK A01 T02540038  RH  025%=      5-min Rain = 0
KOD1 192101Z 17018KT 25/04 A2983 RMK A01 T02540042  RH  025%=      5-min Rain = 0
KOD1 192102Z 17018KT 26/04 A2983 RMK A01 T02560043  RH  025%=      5-min Rain = 0
KOD1 192103Z 17019KT 25/04 A2983 RMK A01 T02540041  RH  025%=      5-min Rain = 0
KOD1 192104Z 17018KT 25/04 A2983 RMK A01 T02530043  RH  026%=      5-min Rain = 0
KOD1 192105Z 17017KT 25/04 A2983 RMK A01 T02530044  RH  026%=      5-min Rain = 0
KOD1 192106Z 18021KT 25/04 A2983 RMK A01 T02540043  RH  026%=      5-min Rain = 0
KOD1 192107Z 18018KT 25/04 A2983 RMK A01 T02530042  RH  026%=      5-min Rain = 0
KOD1 192108Z 18017KT 25/04 A2983 RMK A01 T02540044  RH  026%=      5-min Rain = 0
KOD1 192109Z 17016KT 25/05 A2982 RMK A01 T02540045  RH  026%=      5-min Rain = 0
KOD1 192110Z 17013KT 25/05 A2982 RMK A01 T02540047  RH  026%=      5-min Rain = 0
KOD1 192111Z 16018G23KT 25/05 A2983 RMK A01 T02540047  RH  026%=      5-min Rain = 0
KOD1 192112Z 16018KT 25/05 A2982 RMK A01 T02530045  RH  026%=      5-min Rain = 0
KOD1 192113Z 16020KT 25/04 A2982 RMK A01 T02530043  RH  026%=      5-min Rain = 0
KOD1 192114Z 18018KT 25/04 A2982 RMK A01 T02520044  RH  026%=      5-min Rain = 0
KOD1 192115Z 18016G21KT 25/05 A2982 RMK A01 T02520045  RH  026%=      5-min Rain = 0
KOD1 192116Z 17018KT 25/05 A2982 RMK A01 T02530045  RH  026%=      5-min Rain = 0
KOD1 192117Z 18018KT 25/05 A2982 RMK A01 T02530045  RH  026%=      5-min Rain = 0
KOD1 192118Z 18018KT 25/05 A2982 RMK A01 T02530046  RH  026%=      5-min Rain = 0
KOD1 192119Z 16015KT 25/05 A2982 RMK A01 T02530048  RH  027%=      5-min Rain = 0
KOD1 192120Z 15016KT 25/05 A2982 RMK A01 T02540048  RH  027%=      5-min Rain = 0
KOD1 192121Z 16019KT 25/05 A2982 RMK A01 T02530047  RH  027%=      5-min Rain = 0
KOD1 192122Z 16016KT 25/05 A2983 RMK A01 T02520048  RH  027%=      5-min Rain = 0
KOD1 192123Z 15015KT 25/05 A2982 RMK A01 T02520047  RH  027%=      5-min Rain = 0
KOD1 192124Z 17014KT 25/05 A2982 RMK A01 T02530046  RH  026%=      5-min Rain = 0
KOD1 192125Z 17015KT 25/05 A2982 RMK A01 T02540046  RH  026%=      5-min Rain = 0
KOD1 192126Z 18018KT 25/04 A2982 RMK A01 T02540044  RH  026%=      5-min Rain = 0
KOD1 192127Z 18020KT 25/04 A2982 RMK A01 T02530042  RH  026%=      5-min Rain = 0
KOD1 192128Z 17020KT 25/04 A2982 RMK A01 T02520042  RH  026%=      5-min Rain = 0
KOD1 192129Z 17018KT 25/04 A2982 RMK A01 T02520042  RH  026%=      5-min Rain = 0
KOD1 192130Z 17019KT 25/04 A2982 RMK A01 T02520043  RH  026%=      5-min Rain = 0
KOD1 192131Z 17019KT 25/04 A2982 RMK A01 T02520043  RH  026%=      5-min Rain = 0
KOD1 192132Z 18020KT 25/04 A2982 RMK A01 T02520042  RH  026%=      5-min Rain = 0
KOD1 192133Z 17018KT 25/04 A2982 RMK A01 T02520041  RH  026%=      5-min Rain = 0
KOD1 192134Z 16016KT 25/04 A2982 RMK A01 T02530043  RH  026%=      5-min Rain = 0
KOD1 192135Z 18018KT 25/04 A2982 RMK A01 T02540042  RH  026%=      5-min Rain = 0
KOD1 192136Z 17017KT 25/04 A2982 RMK A01 T02540041  RH  025%=      5-min Rain = 0
KOD1 192137Z 17017KT 25/04 A2982 RMK A01 T02540042  RH  025%=      5-min Rain = 0
KOD1 192138Z 17019KT 25/04 A2982 RMK A01 T02530042  RH  026%=      5-min Rain = 0
KOD1 192139Z 18021KT 25/04 A2982 RMK A01 T02520041  RH  026%=      5-min Rain = 0
KOD1 192140Z 17020KT 25/04 A2982 RMK A01 T02520041  RH  026%=      5-min Rain = 0
KOD1 192141Z 17018KT 25/04 A2982 RMK A01 T02520042  RH  026%=      5-min Rain = 0
KOD1 192142Z 17016KT 25/04 A2982 RMK A01 T02520043  RH  026%=      5-min Rain = 0
KOD1 192143Z 16016KT 25/05 A2982 RMK A01 T02530046  RH  026%=      5-min Rain = 0
KOD1 192144Z 15015KT 25/05 A2982 RMK A01 T02530049  RH  027%=      5-min Rain = 0
KOD1 192145Z 15014KT 25/05 A2982 RMK A01 T02520050  RH  027%=      5-min Rain = 0
KOD1 192146Z 16013KT 25/05 A2982 RMK A01 T02520050  RH  027%=      5-min Rain = 0
KOD1 192147Z 16012KT 25/05 A2982 RMK A01 T02530051  RH  027%=      5-min Rain = 0
KOD1 192148Z 15014G19KT 25/05 A2982 RMK A01 T02530051  RH  027%=      5-min Rain = 0
KOD1 192149Z 15013G18KT 25/05 A2982 RMK A01 T02520053  RH  028%=      5-min Rain = 0
KOD1 192150Z 15015G20KT 25/05 A2982 RMK A01 T02520053  RH  028%=      5-min Rain = 0
KOD1 192151Z 16017KT 25/05 A2982 RMK A01 T02520053  RH  028%=      5-min Rain = 0
KOD1 192152Z 15016KT 25/05 A2982 RMK A01 T02510053  RH  028%=      5-min Rain = 0
KOD1 192153Z 15016KT 25/05 A2982 RMK A01 T02500053  RH  028%=      5-min Rain = 0
KOD1 192154Z 16015KT 25/05 A2982 RMK A01 T02500053  RH  028%=      5-min Rain = 0
KOD1 192155Z 15015KT 25/05 A2982 RMK A01 T02500053  RH  028%=      5-min Rain = 0
KOD1 192156Z 15017KT 25/05 A2982 RMK A01 T02500054  RH  028%=      5-min Rain = 0
KOD1 192157Z 16018KT 25/05 A2982 RMK A01 T02500054  RH  028%=      5-min Rain = 0
KOD1 192158Z 16016KT 25/05 A2982 RMK A01 T02490053  RH  028%=      5-min Rain = 0
KOD1 192159Z 15017KT 25/05 A2982 RMK A01 T02490053  RH  028%=      5-min Rain = 0
KOD1 192200Z 16018KT 25/05 A2982 RMK A01 T02490053  RH  028%=      5-min Rain = 0
KOD1 192201Z 16017KT 25/05 A2982 RMK A01 T02480053  RH  028%=      5-min Rain = 0
KOD1 192202Z 16016KT 25/05 A2982 RMK A01 T02490053  RH  028%=      5-min Rain = 0
KOD1 192203Z 16014KT 25/05 A2982 RMK A01 T02480053  RH  028%=      5-min Rain = 0
KOD1 192204Z 16016KT 25/05 A2982 RMK A01 T02490053  RH  028%=      5-min Rain = 0
KOD1 192205Z 15016KT 25/05 A2982 RMK A01 T02480053  RH  028%=      5-min Rain = 0
KOD1 192206Z 16016KT 25/05 A2982 RMK A01 T02480053  RH  028%=      5-min Rain = 0
KOD1 192207Z 16016KT 25/05 A2982 RMK A01 T02480053  RH  028%=      5-min Rain = 0
KOD1 192208Z 16015KT 25/05 A2982 RMK A01 T02470053  RH  029%=      5-min Rain = 0
KOD1 192209Z 16012KT 25/05 A2982 RMK A01 T02470054  RH  029%=      5-min Rain = 0
KOD1 192210Z 16014KT 25/05 A2982 RMK A01 T02480054  RH  029%=      5-min Rain = 0
KOD1 192211Z 15015KT 25/05 A2982 RMK A01 T02470052  RH  028%=      5-min Rain = 0
KOD1 192212Z 15014KT 25/05 A2982 RMK A01 T02470053  RH  029%=      5-min Rain = 0
KOD1 192213Z 15016KT 25/05 A2982 RMK A01 T02470053  RH  029%=      5-min Rain = 0
KOD1 192214Z 16016KT 25/05 A2982 RMK A01 T02470053  RH  029%=      5-min Rain = 0
KOD1 192215Z 15016KT 25/05 A2982 RMK A01 T02470053  RH  029%=      5-min Rain = 0
KOD1 192216Z 15014KT 25/05 A2982 RMK A01 T02470053  RH  029%=      5-min Rain = 0
KOD1 192217Z 15014KT 25/05 A2982 RMK A01 T02470054  RH  029%=      5-min Rain = 0
KOD1 192218Z 15016KT 25/05 A2982 RMK A01 T02460053  RH  029%=      5-min Rain = 0
KOD1 192219Z 15014KT 25/05 A2982 RMK A01 T02460053  RH  029%=      5-min Rain = 0
KOD1 192220Z 15013KT 25/05 A2982 RMK A01 T02460053  RH  029%=      5-min Rain = 0
KOD1 192221Z 15015KT 25/05 A2982 RMK A01 T02460053  RH  029%=      5-min Rain = 0
KOD1 192222Z 15015KT 25/05 A2982 RMK A01 T02450052  RH  029%=      5-min Rain = 0
KOD1 192223Z 15012KT 25/05 A2982 RMK A01 T02450052  RH  029%=      5-min Rain = 0
KOD1 192224Z 15013KT 25/05 A2982 RMK A01 T02450053  RH  029%=      5-min Rain = 0
KOD1 192225Z 16014KT 25/05 A2982 RMK A01 T02450052  RH  029%=      5-min Rain = 0
KOD1 192226Z 15014KT 24/05 A2982 RMK A01 T02440052  RH  029%=      5-min Rain = 0
KOD1 192227Z 15014KT 24/05 A2982 RMK A01 T02440051  RH  029%=      5-min Rain = 0
KOD1 192228Z 15014KT 24/05 A2982 RMK A01 T02440051  RH  029%=      5-min Rain = 0
KOD1 192229Z 16017KT 24/05 A2982 RMK A01 T02430050  RH  029%=      5-min Rain = 0
KOD1 192230Z 15015KT 24/05 A2982 RMK A01 T02430050  RH  029%=      5-min Rain = 0
KOD1 192231Z 15016KT 24/05 A2982 RMK A01 T02430049  RH  029%=      5-min Rain = 0
KOD1 192232Z 15015KT 24/05 A2982 RMK A01 T02430048  RH  028%=      5-min Rain = 0
KOD1 192233Z 15014KT 24/05 A2982 RMK A01 T02420048  RH  028%=      5-min Rain = 0
KOD1 192234Z 16015KT 24/05 A2981 RMK A01 T02420047  RH  028%=      5-min Rain = 0
KOD1 192235Z 15014KT 24/05 A2981 RMK A01 T02410047  RH  028%=      5-min Rain = 0
KOD1 192236Z 15013KT 24/05 A2981 RMK A01 T02410048  RH  029%=      5-min Rain = 0
KOD1 192237Z 15014KT 24/05 A2981 RMK A01 T02410047  RH  028%=      5-min Rain = 0
KOD1 192238Z 15014KT 24/05 A2981 RMK A01 T02410046  RH  028%=      5-min Rain = 0
KOD1 192239Z 15013KT 24/05 A2981 RMK A01 T02410046  RH  028%=      5-min Rain = 0
KOD1 192240Z 15012KT 24/05 A2981 RMK A01 T02400047  RH  029%=      5-min Rain = 0
KOD1 192241Z 15014KT 24/05 A2981 RMK A01 T02400046  RH  029%=      5-min Rain = 0
KOD1 192242Z 15012KT 24/05 A2981 RMK A01 T02400046  RH  028%=      5-min Rain = 0
KOD1 192243Z 15012KT 24/05 A2981 RMK A01 T02400046  RH  029%=      5-min Rain = 0
KOD1 192244Z 15011KT 24/05 A2981 RMK A01 T02390046  RH  029%=      5-min Rain = 0
KOD1 192245Z 15012KT 24/05 A2981 RMK A01 T02390045  RH  028%=      5-min Rain = 0
KOD1 192246Z 14012KT 24/05 A2981 RMK A01 T02390045  RH  029%=      5-min Rain = 0
KOD1 192247Z 15014KT 24/04 A2981 RMK A01 T02390044  RH  028%=      5-min Rain = 0
KOD1 192248Z 15013KT 24/04 A2981 RMK A01 T02390044  RH  028%=      5-min Rain = 0
KOD1 192249Z 15012KT 24/05 A2981 RMK A01 T02380045  RH  028%=      5-min Rain = 0
KOD1 192250Z 15013KT 24/04 A2981 RMK A01 T02380044  RH  028%=      5-min Rain = 0
KOD1 192251Z 15012KT 24/04 A2981 RMK A01 T02370044  RH  028%=      5-min Rain = 0
KOD1 192252Z 15012KT 24/04 A2981 RMK A01 T02360044  RH  029%=      5-min Rain = 0
KOD1 192253Z 15012KT 24/04 A2981 RMK A01 T02360043  RH  029%=      5-min Rain = 0
KOD1 192254Z 15011KT 24/04 A2981 RMK A01 T02350042  RH  029%=      5-min Rain = 0
KOD1 192255Z 15012KT 23/04 A2981 RMK A01 T02340043  RH  029%=      5-min Rain = 0
KOD1 192256Z 15012KT 23/04 A2981 RMK A01 T02330042  RH  029%=      5-min Rain = 0
KOD1 192257Z 15012KT 23/04 A2981 RMK A01 T02320042  RH  029%=      5-min Rain = 0
KOD1 192258Z 15012KT 23/04 A2981 RMK A01 T02310041  RH  029%=      5-min Rain = 0
KOD1 192259Z 15011KT 23/04 A2981 RMK A01 T02310042  RH  029%=      5-min Rain = 0
KOD1 192300Z 15011KT 23/04 A2981 RMK A01 T02310042  RH  029%=      5-min Rain = 0
KOD1 192301Z 15013KT 23/04 A2981 RMK A01 T02310042  RH  029%=      5-min Rain = 0
KOD1 192302Z 15012KT 23/04 A2981 RMK A01 T02310042  RH  029%=      5-min Rain = 0
KOD1 192303Z 15012KT 23/04 A2981 RMK A01 T02310042  RH  029%=      5-min Rain = 0
KOD1 192304Z 15009KT 23/04 A2981 RMK A01 T02310042  RH  029%=      5-min Rain = 0
KOD1 192305Z 15012KT 23/04 A2981 RMK A01 T02290042  RH  030%=      5-min Rain = 0
KOD1 192306Z 15011KT 23/04 A2981 RMK A01 T02290042  RH  030%=      5-min Rain = 0
KOD1 192307Z 15012KT 23/04 A2981 RMK A01 T02290042  RH  030%=      5-min Rain = 0
KOD1 192308Z 15010KT 23/04 A2981 RMK A01 T02280042  RH  030%=      5-min Rain = 0
KOD1 192309Z 15010KT 23/04 A2981 RMK A01 T02270043  RH  030%=      5-min Rain = 0
KOD1 192310Z 15010KT 23/04 A2981 RMK A01 T02260043  RH  030%=      5-min Rain = 0
KOD1 192311Z 15010KT 23/04 A2981 RMK A01 T02250042  RH  030%=      5-min Rain = 0
KOD1 192312Z 15011KT 23/04 A2981 RMK A01 T02250043  RH  030%=      5-min Rain = 0
KOD1 192313Z 14011KT 22/04 A2981 RMK A01 T02240043  RH  031%=      5-min Rain = 0
KOD1 192314Z 14009KT 22/04 A2981 RMK A01 T02240043  RH  031%=      5-min Rain = 0
KOD1 192315Z 14011KT 22/04 A2981 RMK A01 T02230043  RH  031%=      5-min Rain = 0
KOD1 192316Z 14011KT 22/04 A2981 RMK A01 T02240043  RH  031%=      5-min Rain = 0
KOD1 192317Z 14009KT 22/04 A2981 RMK A01 T02240043  RH  031%=      5-min Rain = 0
KOD1 192318Z 14010KT 22/04 A2981 RMK A01 T02220043  RH  031%=      5-min Rain = 0
KOD1 192319Z 14010KT 22/04 A2981 RMK A01 T02210044  RH  031%=      5-min Rain = 0
KOD1 192320Z 14010KT 22/04 A2981 RMK A01 T02210044  RH  032%=      5-min Rain = 0
KOD1 192321Z 15010KT 22/04 A2981 RMK A01 T02210044  RH  032%=      5-min Rain = 0
KOD1 192322Z 14008KT 22/04 A2981 RMK A01 T02210044  RH  032%=      5-min Rain = 0
KOD1 192323Z 14008KT 22/05 A2981 RMK A01 T02180045  RH  032%=      5-min Rain = 0
KOD1 192324Z 14008KT 22/05 A2981 RMK A01 T02160045  RH  032%=      5-min Rain = 0
KOD1 192325Z 14008KT 21/05 A2981 RMK A01 T02140045  RH  033%=      5-min Rain = 0
KOD1 192326Z 14010KT 21/05 A2981 RMK A01 T02120045  RH  033%=      5-min Rain = 0
KOD1 192327Z 15011KT 21/05 A2981 RMK A01 T02140046  RH  033%=      5-min Rain = 0
KOD1 192328Z 14011KT 22/05 A2981 RMK A01 T02170046  RH  033%=      5-min Rain = 0
KOD1 192329Z 14010KT 22/05 A2981 RMK A01 T02190047  RH  033%=      5-min Rain = 0
KOD1 192330Z 15011KT 22/05 A2981 RMK A01 T02180047  RH  033%=      5-min Rain = 0
KOD1 192331Z 15010KT 22/05 A2981 RMK A01 T02160047  RH  033%=      5-min Rain = 0
KOD1 192332Z 15011KT 22/05 A2981 RMK A01 T02150048  RH  033%=      5-min Rain = 0
KOD1 192333Z 15010KT 21/05 A2981 RMK A01 T02140048  RH  034%=      5-min Rain = 0
KOD1 192334Z 15010KT 21/05 A2981 RMK A01 T02130048  RH  034%=      5-min Rain = 0
KOD1 192335Z 15010KT 21/05 A2981 RMK A01 T02120048  RH  034%=      5-min Rain = 0
KOD1 192336Z 15011KT 21/05 A2981 RMK A01 T02100049  RH  035%=      5-min Rain = 0
KOD1 192337Z 15010KT 21/05 A2981 RMK A01 T02100048  RH  035%=      5-min Rain = 0
KOD1 192338Z 15010KT 21/05 A2981 RMK A01 T02100049  RH  035%=      5-min Rain = 0
KOD1 192339Z 15011KT 21/05 A2981 RMK A01 T02090048  RH  035%=      5-min Rain = 0
KOD1 192340Z 15010KT 21/05 A2981 RMK A01 T02080049  RH  035%=      5-min Rain = 0
KOD1 192341Z 15010KT 21/05 A2981 RMK A01 T02070049  RH  035%=      5-min Rain = 0
KOD1 192342Z 15010KT 21/05 A2981 RMK A01 T02060049  RH  036%=      5-min Rain = 0
KOD1 192343Z 15010KT 21/05 A2981 RMK A01 T02050048  RH  036%=      5-min Rain = 0
KOD1 192344Z 15009KT 20/05 A2981 RMK A01 T02040049  RH  036%=      5-min Rain = 0
KOD1 192345Z 15009KT 20/05 A2981 RMK A01 T02020049  RH  037%=      5-min Rain = 0
KOD1 192346Z 15009KT 20/05 A2981 RMK A01 T02010048  RH  037%=      5-min Rain = 0
KOD1 192347Z 15009KT 20/05 A2981 RMK A01 T01990048  RH  037%=      5-min Rain = 0
KOD1 192348Z 15008KT 20/05 A2981 RMK A01 T01980049  RH  037%=      5-min Rain = 0
KOD1 192349Z 15009KT 20/05 A2981 RMK A01 T01970049  RH  038%=      5-min Rain = 0
KOD1 192350Z 15009KT 20/05 A2981 RMK A01 T01960049  RH  038%=      5-min Rain = 0
KOD1 192351Z 15009KT 20/05 A2981 RMK A01 T01950049  RH  038%=      5-min Rain = 0
KOD1 192352Z 15010KT 19/05 A2981 RMK A01 T01940048  RH  038%=      5-min Rain = 0
KOD1 192353Z 15009KT 19/05 A2981 RMK A01 T01930048  RH  038%=      5-min Rain = 0
KOD1 192354Z 15009KT 19/05 A2981 RMK A01 T01930049  RH  039%=      5-min Rain = 0
KOD1 192355Z 15009KT 19/05 A2981 RMK A01 T01930049  RH  039%=      5-min Rain = 0
KOD1 192356Z 14010KT 19/05 A2981 RMK A01 T01930048  RH  039%=      5-min Rain = 0
KOD1 192357Z 14009KT 19/05 A2981 RMK A01 T01920048  RH  039%=      5-min Rain = 0
KOD1 192358Z 14009KT 19/05 A2981 RMK A01 T01920049  RH  039%=      5-min Rain = 0
KOD1 192359Z 15009KT 19/05 A2981 RMK A01 T01920049  RH  039%=      5-min Rain = 0
KOD1 200000Z 15008KT 19/05 A2981 RMK A01 T01920049  RH  039%=      5-min Rain = 0
KOD1 200001Z 15009KT 19/05 A2981 RMK A01 T01910049  RH  039%=      5-min Rain = 0
KOD1 200002Z 14009KT 19/05 A2981 RMK A01 T01900049  RH  039%=      5-min Rain = 0
KOD1 200003Z 14009KT 19/05 A2981 RMK A01 T01900049  RH  039%=      5-min Rain = 0
KOD1 200004Z 14009KT 19/05 A2981 RMK A01 T01910049  RH  039%=      5-min Rain = 0
KOD1 200005Z 14010KT 19/05 A2981 RMK A01 T01920049  RH  039%=      5-min Rain = 0
KOD1 200006Z 14010KT 19/05 A2981 RMK A01 T01940049  RH  038%=      5-min Rain = 0
KOD1 200007Z 14010KT 20/05 A2981 RMK A01 T01950049  RH  038%=      5-min Rain = 0
KOD1 200008Z 15009KT 20/05 A2981 RMK A01 T01950049  RH  038%=      5-min Rain = 0
KOD1 200009Z 14009KT 20/05 A2981 RMK A01 T01950049  RH  038%=      5-min Rain = 0
KOD1 200010Z 14009KT 19/05 A2981 RMK A01 T01940049  RH  038%=      5-min Rain = 0
KOD1 200011Z 14009KT 19/05 A2981 RMK A01 T01930049  RH  039%=      5-min Rain = 0
KOD1 200012Z 13009KT 19/05 A2981 RMK A01 T01920048  RH  039%=      5-min Rain = 0
KOD1 200013Z 13009KT 19/05 A2981 RMK A01 T01900049  RH  039%=      5-min Rain = 0
KOD1 200014Z 13010KT 19/05 A2982 RMK A01 T01890049  RH  040%=      5-min Rain = 0
KOD1 200015Z 13010KT 19/05 A2981 RMK A01 T01880049  RH  040%=      5-min Rain = 0
KOD1 200016Z 13010KT 19/05 A2981 RMK A01 T01880049  RH  040%=      5-min Rain = 0
KOD1 200017Z 13010KT 19/05 A2981 RMK A01 T01870049  RH  040%=      5-min Rain = 0
KOD1 200018Z 13011KT 19/05 A2981 RMK A01 T01880049  RH  040%=      5-min Rain = 0
KOD1 200019Z 13011KT 19/05 A2981 RMK A01 T01900049  RH  039%=      5-min Rain = 0
KOD1 200020Z 13011KT 19/05 A2981 RMK A01 T01910048  RH  039%=      5-min Rain = 0
KOD1 200021Z 13010KT 19/05 A2981 RMK A01 T01910048  RH  039%=      5-min Rain = 0
KOD1 200022Z 13010KT 19/05 A2981 RMK A01 T01900048  RH  039%=      5-min Rain = 0
KOD1 200023Z 13010KT 19/05 A2981 RMK A01 T01890048  RH  039%=      5-min Rain = 0
KOD1 200024Z 13010KT 19/05 A2981 RMK A01 T01890048  RH  040%=      5-min Rain = 0
KOD1 200025Z 13009KT 19/05 A2982 RMK A01 T01880048  RH  040%=      5-min Rain = 0
KOD1 200026Z 13010KT 19/05 A2982 RMK A01 T01880048  RH  040%=      5-min Rain = 0
KOD1 200027Z 13009KT 19/05 A2981 RMK A01 T01870048  RH  040%=      5-min Rain = 0
KOD1 200028Z 13010KT 19/05 A2981 RMK A01 T01870048  RH  040%=      5-min Rain = 0
KOD1 200029Z 13010KT 19/05 A2981 RMK A01 T01860048  RH  040%=      5-min Rain = 0
KOD1 200030Z 13010KT 19/05 A2981 RMK A01 T01860048  RH  040%=      5-min Rain = 0
KOD1 200031Z 13009KT 19/05 A2981 RMK A01 T01850048  RH  040%=      5-min Rain = 0
KOD1 200032Z 13010KT 18/05 A2981 RMK A01 T01840048  RH  040%=      5-min Rain = 0
KOD1 200033Z 13010KT 18/05 A2981 RMK A01 T01840047  RH  040%=      5-min Rain = 0
KOD1 200034Z 13010KT 19/05 A2981 RMK A01 T01850048  RH  040%=      5-min Rain = 0
KOD1 200035Z 13010KT 19/05 A2981 RMK A01 T01850048  RH  040%=      5-min Rain = 0
KOD1 200036Z 13010KT 19/05 A2981 RMK A01 T01850048  RH  040%=      5-min Rain = 0
KOD1 200037Z 13010KT 19/05 A2981 RMK A01 T01850048  RH  040%=      5-min Rain = 0
KOD1 200038Z 13010KT 19/05 A2981 RMK A01 T01850048  RH  040%=      5-min Rain = 0
KOD1 200039Z 13010KT 19/05 A2981 RMK A01 T01850048  RH  040%=      5-min Rain = 0
KOD1 200040Z 13010KT 19/05 A2981 RMK A01 T01850048  RH  040%=      5-min Rain = 0
KOD1 200041Z 12009KT 19/05 A2981 RMK A01 T01850048  RH  040%=      5-min Rain = 0
KOD1 200042Z 13010KT 19/05 A2981 RMK A01 T01850048  RH  041%=      5-min Rain = 0
KOD1 200043Z 13010KT 18/05 A2981 RMK A01 T01840048  RH  041%=      5-min Rain = 0
KOD1 200044Z 13010KT 18/05 A2981 RMK A01 T01840048  RH  041%=      5-min Rain = 0
KOD1 200045Z 13010KT 18/05 A2981 RMK A01 T01830048  RH  041%=      5-min Rain = 0
KOD1 200046Z 13009KT 18/05 A2981 RMK A01 T01840048  RH  041%=      5-min Rain = 0
KOD1 200047Z 13009KT 18/05 A2981 RMK A01 T01830048  RH  041%=      5-min Rain = 0
KOD1 200048Z 13011KT 18/05 A2981 RMK A01 T01820048  RH  041%=      5-min Rain = 0
KOD1 200049Z 13011KT 18/05 A2981 RMK A01 T01830048  RH  041%=      5-min Rain = 0
KOD1 200050Z 13011KT 18/05 A2981 RMK A01 T01830048  RH  041%=      5-min Rain = 0
KOD1 200051Z 13010KT 18/05 A2981 RMK A01 T01830048  RH  041%=      5-min Rain = 0
KOD1 200052Z 13011KT 18/05 A2981 RMK A01 T01830049  RH  041%=      5-min Rain = 0
KOD1 200053Z 13010KT 18/05 A2981 RMK A01 T01820048  RH  041%=      5-min Rain = 0
KOD1 200054Z 13011KT 18/05 A2982 RMK A01 T01810048  RH  041%=      5-min Rain = 0
KOD1 200055Z 12011KT 18/05 A2982 RMK A01 T01810048  RH  041%=      5-min Rain = 0
KOD1 200056Z 13011KT 18/05 A2982 RMK A01 T01820048  RH  041%=      5-min Rain = 0
KOD1 200057Z 13011KT 18/05 A2982 RMK A01 T01810048  RH  041%=      5-min Rain = 0
KOD1 200058Z 13011KT 18/05 A2982 RMK A01 T01800048  RH  042%=      5-min Rain = 0
KOD1 200059Z 13010KT 18/05 A2982 RMK A01 T01800048  RH  042%=      5-min Rain = 0
KOD1 200100Z 13010KT 18/05 A2982 RMK A01 T01790048  RH  042%=      5-min Rain = 0
KOD1 200101Z 13010KT 18/05 A2982 RMK A01 T01770048  RH  042%=      5-min Rain = 0
KOD1 200102Z 13010KT 18/05 A2982 RMK A01 T01770048  RH  043%=      5-min Rain = 0
KOD1 200103Z 13009KT 18/05 A2982 RMK A01 T01760048  RH  043%=      5-min Rain = 0
KOD1 200104Z 13010KT 18/05 A2982 RMK A01 T01750048  RH  043%=      5-min Rain = 0
KOD1 200105Z 13010KT 17/05 A2982 RMK A01 T01740048  RH  043%=      5-min Rain = 0
KOD1 200106Z 13010KT 17/05 A2982 RMK A01 T01740048  RH  043%=      5-min Rain = 0
KOD1 200107Z 13010KT 17/05 A2982 RMK A01 T01740048  RH  043%=      5-min Rain = 0
KOD1 200108Z 13010KT 17/05 A2982 RMK A01 T01740048  RH  043%=      5-min Rain = 0
KOD1 200109Z 13010KT 17/05 A2982 RMK A01 T01740048  RH  043%=      5-min Rain = 0
KOD1 200110Z 13011KT 17/05 A2982 RMK A01 T01740048  RH  044%=      5-min Rain = 0
KOD1 200111Z 13010KT 17/05 A2982 RMK A01 T01740048  RH  043%=      5-min Rain = 0
KOD1 200112Z 13011KT 17/05 A2982 RMK A01 T01740048  RH  043%=      5-min Rain = 0
KOD1 200113Z 13011KT 17/05 A2982 RMK A01 T01740048  RH  043%=      5-min Rain = 0
KOD1 200114Z 13011KT 17/05 A2982 RMK A01 T01740049  RH  043%=      5-min Rain = 0
KOD1 200115Z 13011KT 18/05 A2982 RMK A01 T01750049  RH  043%=      5-min Rain = 0
KOD1 200116Z 13011KT 17/05 A2982 RMK A01 T01740049  RH  043%=      5-min Rain = 0
KOD1 200117Z 13012KT 17/05 A2982 RMK A01 T01740049  RH  044%=      5-min Rain = 0
KOD1 200118Z 13011KT 17/05 A2982 RMK A01 T01740049  RH  044%=      5-min Rain = 0
KOD1 200119Z 13011KT 17/05 A2982 RMK A01 T01740049  RH  044%=      5-min Rain = 0
KOD1 200120Z 13011KT 17/05 A2982 RMK A01 T01730049  RH  044%=      5-min Rain = 0
KOD1 200121Z 13012KT 17/05 A2982 RMK A01 T01730049  RH  044%=      5-min Rain = 0
KOD1 200122Z 13011KT 17/05 A2982 RMK A01 T01730049  RH  044%=      5-min Rain = 0
KOD1 200123Z 13012KT 17/05 A2982 RMK A01 T01730049  RH  044%=      5-min Rain = 0
KOD1 200124Z 13011KT 17/05 A2982 RMK A01 T01720049  RH  044%=      5-min Rain = 0
KOD1 200125Z 13011KT 17/05 A2982 RMK A01 T01720049  RH  044%=      5-min Rain = 0
KOD1 200126Z 13011KT 17/05 A2982 RMK A01 T01720049  RH  044%=      5-min Rain = 0
KOD1 200127Z 13011KT 17/05 A2982 RMK A01 T01710048  RH  044%=      5-min Rain = 0
KOD1 200128Z 13011KT 17/05 A2982 RMK A01 T01720048  RH  044%=      5-min Rain = 0
KOD1 200129Z 13011KT 17/05 A2982 RMK A01 T01720048  RH  044%=      5-min Rain = 0
KOD1 200130Z 13011KT 17/05 A2982 RMK A01 T01720048  RH  044%=      5-min Rain = 0
KOD1 200131Z 13012KT 17/05 A2982 RMK A01 T01710048  RH  044%=      5-min Rain = 0
KOD1 200132Z 13012KT 17/05 A2982 RMK A01 T01710048  RH  044%=      5-min Rain = 0
KOD1 200133Z 13011KT 17/05 A2982 RMK A01 T01710048  RH  044%=      5-min Rain = 0
KOD1 200134Z 13011KT 17/05 A2982 RMK A01 T01720048  RH  044%=      5-min Rain = 0
KOD1 200135Z 14012KT 17/05 A2982 RMK A01 T01710048  RH  044%=      5-min Rain = 0
KOD1 200136Z 14012KT 17/05 A2982 RMK A01 T01710048  RH  044%=      5-min Rain = 0
KOD1 200137Z 14012KT 17/05 A2982 RMK A01 T01710048  RH  044%=      5-min Rain = 0
KOD1 200138Z 13011KT 17/05 A2982 RMK A01 T01710048  RH  044%=      5-min Rain = 0
KOD1 200139Z 14011KT 17/05 A2982 RMK A01 T01700048  RH  044%=      5-min Rain = 0
KOD1 200140Z 14011KT 17/05 A2982 RMK A01 T01690048  RH  045%=      5-min Rain = 0
KOD1 200141Z 14012KT 17/05 A2982 RMK A01 T01690048  RH  045%=      5-min Rain = 0
KOD1 200142Z 13012KT 17/05 A2982 RMK A01 T01690048  RH  045%=      5-min Rain = 0
KOD1 200143Z 14011KT 17/05 A2982 RMK A01 T01690047  RH  045%=      5-min Rain = 0
KOD1 200144Z 14011KT 17/05 A2982 RMK A01 T01690048  RH  045%=      5-min Rain = 0
KOD1 200145Z 14012KT 17/05 A2982 RMK A01 T01680048  RH  045%=      5-min Rain = 0
KOD1 200146Z 13010KT 17/05 A2982 RMK A01 T01670048  RH  045%=      5-min Rain = 0
KOD1 200147Z 14011KT 17/05 A2982 RMK A01 T01670048  RH  045%=      5-min Rain = 0
KOD1 200148Z 14011KT 17/05 A2982 RMK A01 T01670047  RH  045%=      5-min Rain = 0
KOD1 200149Z 14011KT 17/05 A2982 RMK A01 T01680047  RH  045%=      5-min Rain = 0
KOD1 200150Z 14011KT 17/05 A2982 RMK A01 T01670047  RH  045%=      5-min Rain = 0
KOD1 200151Z 14012KT 17/05 A2982 RMK A01 T01670047  RH  045%=      5-min Rain = 0
KOD1 200152Z 13012KT 17/05 A2982 RMK A01 T01670047  RH  045%=      5-min Rain = 0
KOD1 200153Z 14012KT 17/05 A2982 RMK A01 T01670047  RH  045%=      5-min Rain = 0
KOD1 200154Z 14011KT 17/05 A2982 RMK A01 T01670047  RH  045%=      5-min Rain = 0
KOD1 200155Z 14012KT 17/05 A2982 RMK A01 T01660047  RH  045%=      5-min Rain = 0
KOD1 200156Z 14012KT 17/05 A2982 RMK A01 T01670046  RH  045%=      5-min Rain = 0
KOD1 200157Z 14011KT 17/05 A2982 RMK A01 T01670046  RH  045%=      5-min Rain = 0
KOD1 200158Z 14012KT 17/05 A2982 RMK A01 T01660046  RH  045%=      5-min Rain = 0
KOD1 200159Z 14012KT 17/05 A2982 RMK A01 T01650046  RH  045%=      5-min Rain = 0
KOD1 200200Z 14012KT 17/05 A2982 RMK A01 T01660046  RH  045%=      5-min Rain = 0
KOD1 200201Z 13012KT 17/05 A2982 RMK A01 T01660046  RH  045%=      5-min Rain = 0
KOD1 200202Z 13012KT 17/05 A2982 RMK A01 T01660046  RH  045%=      5-min Rain = 0
KOD1 200203Z 14012KT 17/05 A2982 RMK A01 T01660046  RH  045%=      5-min Rain = 0
KOD1 200204Z 14011KT 17/05 A2982 RMK A01 T01660046  RH  045%=      5-min Rain = 0
KOD1 200205Z 14012KT 17/05 A2982 RMK A01 T01660046  RH  045%=      5-min Rain = 0
KOD1 200206Z 14012KT 17/05 A2982 RMK A01 T01660045  RH  045%=      5-min Rain = 0
KOD1 200207Z 14011KT 17/05 A2982 RMK A01 T01660045  RH  045%=      5-min Rain = 0
KOD1 200208Z 14012KT 17/05 A2981 RMK A01 T01670045  RH  044%=      5-min Rain = 0
KOD1 200209Z 14011KT 17/04 A2982 RMK A01 T01680044  RH  044%=      5-min Rain = 0
KOD1 200210Z 14011KT 17/04 A2982 RMK A01 T01660044  RH  044%=      5-min Rain = 0
KOD1 200211Z 14011KT 17/04 A2982 RMK A01 T01670044  RH  044%=      5-min Rain = 0
KOD1 200212Z 14012KT 17/04 A2982 RMK A01 T01670044  RH  044%=      5-min Rain = 0
KOD1 200213Z 14012KT 17/04 A2982 RMK A01 T01680044  RH  044%=      5-min Rain = 0
KOD1 200214Z 14012KT 17/04 A2982 RMK A01 T01690044  RH  043%=      5-min Rain = 0
KOD1 200215Z 14012KT 17/04 A2981 RMK A01 T01690043  RH  043%=      5-min Rain = 0
KOD1 200216Z 14013KT 17/04 A2981 RMK A01 T01690044  RH  043%=      5-min Rain = 0
KOD1 200217Z 14012KT 17/04 A2981 RMK A01 T01690043  RH  043%=      5-min Rain = 0
KOD1 200218Z 14012KT 17/04 A2981 RMK A01 T01700044  RH  043%=      5-min Rain = 0
KOD1 200219Z 14012KT 17/04 A2981 RMK A01 T01700044  RH  043%=      5-min Rain = 0
KOD1 200220Z 14013KT 17/04 A2982 RMK A01 T01690044  RH  043%=      5-min Rain = 0
KOD1 200221Z 14012KT 17/04 A2982 RMK A01 T01680044  RH  044%=      5-min Rain = 0
KOD1 200222Z 14012KT 17/04 A2982 RMK A01 T01670044  RH  044%=      5-min Rain = 0
KOD1 200223Z 14012KT 17/04 A2982 RMK A01 T01660044  RH  044%=      5-min Rain = 0
KOD1 200224Z 14012KT 17/04 A2982 RMK A01 T01650044  RH  044%=      5-min Rain = 0
KOD1 200225Z 14012KT 16/04 A2982 RMK A01 T01640044  RH  045%=      5-min Rain = 0
KOD1 200226Z 14012KT 16/04 A2982 RMK A01 T01640044  RH  045%=      5-min Rain = 0
KOD1 200227Z 14011KT 16/04 A2982 RMK A01 T01640044  RH  045%=      5-min Rain = 0
KOD1 200228Z 14011KT 16/04 A2982 RMK A01 T01630044  RH  045%=      5-min Rain = 0
KOD1 200229Z 14011KT 16/04 A2982 RMK A01 T01620044  RH  045%=      5-min Rain = 0
KOD1 200230Z 14011KT 16/04 A2982 RMK A01 T01610044  RH  046%=      5-min Rain = 0
KOD1 200231Z 13012KT 16/04 A2982 RMK A01 T01620044  RH  045%=      5-min Rain = 0
KOD1 200232Z 14012KT 16/04 A2982 RMK A01 T01620043  RH  045%=      5-min Rain = 0
KOD1 200233Z 14011KT 16/04 A2982 RMK A01 T01610043  RH  046%=      5-min Rain = 0
KOD1 200234Z 13012KT 16/04 A2982 RMK A01 T01610043  RH  045%=      5-min Rain = 0
KOD1 200235Z 13012KT 16/04 A2982 RMK A01 T01620043  RH  045%=      5-min Rain = 0
KOD1 200236Z 14012KT 16/04 A2982 RMK A01 T01620043  RH  045%=      5-min Rain = 0
KOD1 200237Z 14012KT 16/04 A2982 RMK A01 T01620043  RH  045%=      5-min Rain = 0
KOD1 200238Z 14011KT 16/04 A2982 RMK A01 T01630043  RH  045%=      5-min Rain = 0
KOD1 200239Z 14011KT 16/04 A2982 RMK A01 T01630043  RH  045%=      5-min Rain = 0
KOD1 200240Z 14011KT 16/04 A2982 RMK A01 T01630043  RH  045%=      5-min Rain = 0
KOD1 200241Z 14011KT 16/04 A2982 RMK A01 T01620043  RH  045%=      5-min Rain = 0
KOD1 200242Z 14012KT 16/04 A2982 RMK A01 T01620042  RH  045%=      5-min Rain = 0
KOD1 200243Z 14011KT 16/04 A2982 RMK A01 T01630042  RH  045%=      5-min Rain = 0
KOD1 200244Z 14011KT 16/04 A2982 RMK A01 T01630043  RH  045%=      5-min Rain = 0
KOD1 200245Z 14011KT 16/04 A2982 RMK A01 T01630042  RH  045%=      5-min Rain = 0
KOD1 200246Z 14011KT 16/04 A2982 RMK A01 T01630042  RH  045%=      5-min Rain = 0
KOD1 200247Z 14011KT 16/04 A2982 RMK A01 T01630042  RH  045%=      5-min Rain = 0
KOD1 200248Z 14011KT 16/04 A2982 RMK A01 T01630042  RH  045%=      5-min Rain = 0
KOD1 200249Z 14010KT 16/04 A2982 RMK A01 T01620042  RH  045%=      5-min Rain = 0
KOD1 200250Z 14011KT 16/04 A2982 RMK A01 T01610042  RH  045%=      5-min Rain = 0
KOD1 200251Z 14012KT 16/04 A2982 RMK A01 T01610041  RH  045%=      5-min Rain = 0
KOD1 200252Z 14011KT 16/04 A2982 RMK A01 T01620041  RH  045%=      5-min Rain = 0
KOD1 200253Z 14011KT 16/04 A2982 RMK A01 T01610041  RH  045%=      5-min Rain = 0
KOD1 200254Z 14011KT 16/04 A2982 RMK A01 T01600041  RH  045%=      5-min Rain = 0
KOD1 200255Z 14011KT 16/04 A2982 RMK A01 T01600041  RH  045%=      5-min Rain = 0
KOD1 200256Z 14011KT 16/04 A2982 RMK A01 T01600041  RH  045%=      5-min Rain = 0
KOD1 200257Z 14011KT 16/04 A2982 RMK A01 T01600041  RH  045%=      5-min Rain = 0
KOD1 200258Z 14011KT 16/04 A2982 RMK A01 T01600041  RH  045%=      5-min Rain = 0
KOD1 200259Z 14011KT 16/04 A2982 RMK A01 T01600041  RH  045%=      5-min Rain = 0
KOD1 200300Z 14011KT 16/04 A2982 RMK A01 T01600041  RH  045%=      5-min Rain = 0
KOD1 200301Z 14011KT 16/04 A2982 RMK A01 T01600041  RH  045%=      5-min Rain = 0
KOD1 200302Z 14011KT 16/04 A2982 RMK A01 T01600040  RH  045%=      5-min Rain = 0
KOD1 200303Z 15011KT 16/04 A2982 RMK A01 T01600041  RH  045%=      5-min Rain = 0
KOD1 200304Z 15011KT 16/04 A2982 RMK A01 T01600041  RH  045%=      5-min Rain = 0
KOD1 200305Z 15012KT 16/04 A2982 RMK A01 T01600041  RH  045%=      5-min Rain = 0
KOD1 200306Z 15011KT 16/04 A2982 RMK A01 T01610041  RH  045%=      5-min Rain = 0
KOD1 200307Z 15012KT 16/04 A2982 RMK A01 T01610041  RH  045%=      5-min Rain = 0
KOD1 200308Z 15012KT 16/04 A2982 RMK A01 T01610041  RH  045%=      5-min Rain = 0
KOD1 200309Z 15011KT 16/04 A2982 RMK A01 T01610041  RH  045%=      5-min Rain = 0
KOD1 200310Z 15011KT 16/04 A2982 RMK A01 T01600041  RH  045%=      5-min Rain = 0
KOD1 200311Z 15012KT 16/04 A2982 RMK A01 T01600042  RH  045%=      5-min Rain = 0
KOD1 200312Z 15011KT 16/04 A2982 RMK A01 T01600042  RH  045%=      5-min Rain = 0
KOD1 200313Z 15011KT 16/04 A2982 RMK A01 T01600042  RH  045%=      5-min Rain = 0
KOD1 200314Z 15011KT 16/04 A2982 RMK A01 T01590042  RH  046%=      5-min Rain = 0
KOD1 200315Z 15011KT 16/04 A2982 RMK A01 T01600042  RH  046%=      5-min Rain = 0
KOD1 200316Z 14011KT 16/04 A2982 RMK A01 T01590042  RH  046%=      5-min Rain = 0
KOD1 200317Z 15012KT 16/04 A2982 RMK A01 T01600043  RH  046%=      5-min Rain = 0
KOD1 200318Z 14010KT 16/04 A2982 RMK A01 T01600043  RH  046%=      5-min Rain = 0
KOD1 200319Z 15011KT 16/04 A2982 RMK A01 T01590043  RH  046%=      5-min Rain = 0
KOD1 200320Z 14011KT 16/04 A2982 RMK A01 T01590043  RH  046%=      5-min Rain = 0
KOD1 200321Z 14010KT 16/04 A2982 RMK A01 T01590043  RH  046%=      5-min Rain = 0
KOD1 200322Z 14010KT 16/04 A2982 RMK A01 T01570043  RH  046%=      5-min Rain = 0
KOD1 200323Z 14011KT 16/04 A2982 RMK A01 T01570043  RH  047%=      5-min Rain = 0
KOD1 200324Z 14010KT 16/04 A2982 RMK A01 T01580043  RH  046%=      5-min Rain = 0
KOD1 200325Z 14010KT 16/04 A2982 RMK A01 T01580043  RH  046%=      5-min Rain = 0
KOD1 200326Z 14011KT 16/04 A2982 RMK A01 T01580043  RH  047%=      5-min Rain = 0
KOD1 200327Z 14011KT 16/04 A2982 RMK A01 T01570044  RH  047%=      5-min Rain = 0
KOD1 200328Z 14011KT 16/04 A2982 RMK A01 T01570043  RH  047%=      5-min Rain = 0
KOD1 200329Z 14011KT 16/04 A2982 RMK A01 T01570044  RH  047%=      5-min Rain = 0
KOD1 200330Z 14010KT 16/04 A2982 RMK A01 T01570044  RH  047%=      5-min Rain = 0
KOD1 200331Z 14010KT 16/04 A2982 RMK A01 T01560044  RH  047%=      5-min Rain = 0
KOD1 200332Z 14011KT 16/04 A2982 RMK A01 T01560044  RH  047%=      5-min Rain = 0
KOD1 200333Z 14011KT 16/04 A2982 RMK A01 T01560044  RH  047%=      5-min Rain = 0
KOD1 200334Z 14011KT 16/04 A2982 RMK A01 T01560044  RH  047%=      5-min Rain = 0
KOD1 200335Z 14011KT 16/05 A2982 RMK A01 T01560045  RH  047%=      5-min Rain = 0
KOD1 200336Z 14011KT 16/04 A2982 RMK A01 T01560044  RH  047%=      5-min Rain = 0
KOD1 200337Z 14011KT 16/04 A2982 RMK A01 T01550044  RH  048%=      5-min Rain = 0
KOD1 200338Z 14010KT 16/05 A2982 RMK A01 T01550045  RH  048%=      5-min Rain = 0
KOD1 200339Z 14011KT 15/05 A2982 RMK A01 T01540045  RH  048%=      5-min Rain = 0
KOD1 200340Z 14011KT 15/05 A2982 RMK A01 T01540045  RH  048%=      5-min Rain = 0
KOD1 200341Z 14010KT 15/05 A2982 RMK A01 T01540045  RH  048%=      5-min Rain = 0
KOD1 200342Z 14011KT 15/05 A2982 RMK A01 T01540045  RH  048%=      5-min Rain = 0
KOD1 200343Z 14010KT 15/05 A2982 RMK A01 T01530045  RH  048%=      5-min Rain = 0
KOD1 200344Z 14011KT 15/05 A2982 RMK A01 T01540045  RH  048%=      5-min Rain = 0
KOD1 200345Z 14011KT 15/05 A2982 RMK A01 T01540045  RH  048%=      5-min Rain = 0
KOD1 200346Z 14010KT 15/05 A2982 RMK A01 T01540045  RH  048%=      5-min Rain = 0
KOD1 200347Z 14011KT 15/05 A2982 RMK A01 T01530045  RH  048%=      5-min Rain = 0
KOD1 200348Z 14011KT 15/05 A2982 RMK A01 T01530045  RH  048%=      5-min Rain = 0
KOD1 200349Z 14011KT 15/05 A2982 RMK A01 T01540045  RH  048%=      5-min Rain = 0
KOD1 200350Z 14011KT 15/05 A2982 RMK A01 T01540045  RH  048%=      5-min Rain = 0
KOD1 200351Z 14011KT 15/05 A2982 RMK A01 T01540045  RH  048%=      5-min Rain = 0
KOD1 200352Z 14011KT 15/05 A2982 RMK A01 T01540045  RH  048%=      5-min Rain = 0
KOD1 200353Z 14012KT 15/05 A2982 RMK A01 T01540045  RH  048%=      5-min Rain = 0
KOD1 200354Z 15011KT 16/05 A2982 RMK A01 T01550045  RH  048%=      5-min Rain = 0
KOD1 200355Z 14011KT 16/05 A2982 RMK A01 T01550045  RH  048%=      5-min Rain = 0
KOD1 200356Z 15012KT 16/05 A2982 RMK A01 T01560045  RH  048%=      5-min Rain = 0
KOD1 200357Z 15013KT 16/05 A2982 RMK A01 T01570046  RH  048%=      5-min Rain = 0
KOD1 200358Z 15012KT 16/05 A2982 RMK A01 T01580046  RH  047%=      5-min Rain = 0
KOD1 200359Z 15013KT 16/05 A2982 RMK A01 T01580046  RH  047%=      5-min Rain = 0
KOD1 200400Z 15013KT 16/05 A2982 RMK A01 T01570046  RH  048%=      5-min Rain = 0
KOD1 200401Z 15013KT 16/05 A2983 RMK A01 T01570046  RH  048%=      5-min Rain = 0
KOD1 200402Z 15014KT 16/05 A2983 RMK A01 T01580047  RH  048%=      5-min Rain = 0
KOD1 200403Z 15013KT 16/05 A2983 RMK A01 T01580047  RH  048%=      5-min Rain = 0
KOD1 200404Z 15012KT 16/05 A2983 RMK A01 T01570047  RH  048%=      5-min Rain = 0
KOD1 200405Z 15012KT 16/05 A2983 RMK A01 T01560047  RH  048%=      5-min Rain = 0
KOD1 200406Z 15013KT 16/05 A2983 RMK A01 T01570047  RH  048%=      5-min Rain = 0
KOD1 200407Z 15013KT 16/05 A2983 RMK A01 T01580047  RH  048%=      5-min Rain = 0
KOD1 200408Z 15013KT 16/05 A2983 RMK A01 T01580047  RH  048%=      5-min Rain = 0
KOD1 200409Z 15012KT 16/05 A2983 RMK A01 T01580047  RH  048%=      5-min Rain = 0
KOD1 200410Z 15013KT 16/05 A2983 RMK A01 T01570047  RH  048%=      5-min Rain = 0
KOD1 200411Z 15014KT 16/05 A2982 RMK A01 T01570047  RH  048%=      5-min Rain = 0
KOD1 200412Z 15014KT 16/05 A2982 RMK A01 T01580047  RH  048%=      5-min Rain = 0
KOD1 200413Z 15013KT 16/05 A2982 RMK A01 T01580047  RH  048%=      5-min Rain = 0
KOD1 200414Z 15013KT 16/05 A2982 RMK A01 T01570047  RH  048%=      5-min Rain = 0
KOD1 200415Z 15013KT 16/05 A2982 RMK A01 T01570047  RH  048%=      5-min Rain = 0
KOD1 200416Z 15014KT 16/05 A2982 RMK A01 T01570047  RH  048%=      5-min Rain = 0
KOD1 200417Z 15012KT 16/05 A2982 RMK A01 T01570048  RH  048%=      5-min Rain = 0
KOD1 200418Z 15012KT 16/05 A2982 RMK A01 T01560047  RH  048%=      5-min Rain = 0
KOD1 200419Z 15012KT 16/05 A2982 RMK A01 T01550048  RH  049%=      5-min Rain = 0
KOD1 200420Z 14013KT 16/05 A2982 RMK A01 T01550048  RH  049%=      5-min Rain = 0
KOD1 200421Z 15013KT 15/05 A2982 RMK A01 T01540048  RH  049%=      5-min Rain = 0
KOD1 200422Z 15013KT 15/05 A2982 RMK A01 T01540048  RH  049%=      5-min Rain = 0
KOD1 200423Z 15013KT 15/05 A2982 RMK A01 T01540048  RH  049%=      5-min Rain = 0
KOD1 200424Z 15012KT 15/05 A2982 RMK A01 T01540048  RH  049%=      5-min Rain = 0
KOD1 200425Z 15012KT 15/05 A2982 RMK A01 T01530048  RH  049%=      5-min Rain = 0
KOD1 200426Z 15013KT 15/05 A2982 RMK A01 T01530048  RH  049%=      5-min Rain = 0
KOD1 200427Z 14013KT 15/05 A2982 RMK A01 T01530048  RH  050%=      5-min Rain = 0
KOD1 200428Z 15013KT 15/05 A2982 RMK A01 T01530049  RH  050%=      5-min Rain = 0
KOD1 200429Z 15013KT 15/05 A2982 RMK A01 T01520049  RH  050%=      5-min Rain = 0
KOD1 200430Z 14013KT 15/05 A2982 RMK A01 T01530049  RH  050%=      5-min Rain = 0
KOD1 200431Z 14013KT 15/05 A2982 RMK A01 T01530049  RH  050%=      5-min Rain = 0
KOD1 200432Z 15013KT 15/05 A2982 RMK A01 T01530049  RH  050%=      5-min Rain = 0
KOD1 200433Z 15013KT 15/05 A2982 RMK A01 T01530049  RH  050%=      5-min Rain = 0
KOD1 200434Z 15013KT 15/05 A2982 RMK A01 T01530049  RH  050%=      5-min Rain = 0
KOD1 200435Z 15013KT 15/05 A2982 RMK A01 T01530050  RH  050%=      5-min Rain = 0
KOD1 200436Z 15012KT 15/05 A2982 RMK A01 T01520050  RH  050%=      5-min Rain = 0
KOD1 200437Z 15013KT 15/05 A2982 RMK A01 T01520050  RH  050%=      5-min Rain = 0
KOD1 200438Z 14013KT 15/05 A2982 RMK A01 T01520051  RH  051%=      5-min Rain = 0
KOD1 200439Z 14013KT 15/05 A2982 RMK A01 T01520051  RH  051%=      5-min Rain = 0
KOD1 200440Z 15013KT 15/05 A2982 RMK A01 T01520051  RH  051%=      5-min Rain = 0
KOD1 200441Z 14013KT 15/05 A2982 RMK A01 T01510051  RH  051%=      5-min Rain = 0
KOD1 200442Z 14012KT 15/05 A2982 RMK A01 T01510051  RH  051%=      5-min Rain = 0
KOD1 200443Z 15012KT 15/05 A2982 RMK A01 T01500052  RH  052%=      5-min Rain = 0
KOD1 200444Z 15011KT 15/05 A2982 RMK A01 T01500052  RH  052%=      5-min Rain = 0
KOD1 200445Z 14013KT 15/05 A2982 RMK A01 T01500052  RH  052%=      5-min Rain = 0
KOD1 200446Z 14012KT 15/05 A2982 RMK A01 T01500052  RH  052%=      5-min Rain = 0
KOD1 200447Z 14012KT 15/05 A2982 RMK A01 T01500052  RH  052%=      5-min Rain = 0
KOD1 200448Z 14013KT 15/05 A2982 RMK A01 T01490052  RH  052%=      5-min Rain = 0
KOD1 200449Z 14012KT 15/05 A2982 RMK A01 T01490053  RH  052%=      5-min Rain = 0
KOD1 200450Z 14014KT 15/05 A2982 RMK A01 T01490053  RH  053%=      5-min Rain = 0
KOD1 200451Z 14013KT 15/05 A2982 RMK A01 T01490053  RH  053%=      5-min Rain = 0
KOD1 200452Z 14014KT 15/05 A2982 RMK A01 T01490053  RH  053%=      5-min Rain = 0
KOD1 200453Z 14014KT 15/05 A2982 RMK A01 T01490053  RH  053%=      5-min Rain = 0
KOD1 200454Z 14013KT 15/05 A2982 RMK A01 T01490053  RH  053%=      5-min Rain = 0
KOD1 200455Z 14012KT 15/05 A2982 RMK A01 T01490053  RH  052%=      5-min Rain = 0
KOD1 200456Z 15013KT 15/05 A2982 RMK A01 T01490053  RH  053%=      5-min Rain = 0
KOD1 200457Z 14013KT 15/05 A2982 RMK A01 T01490053  RH  053%=      5-min Rain = 0
KOD1 200458Z 14013KT 15/05 A2982 RMK A01 T01480053  RH  053%=      5-min Rain = 0
KOD1 200459Z 14013KT 15/05 A2982 RMK A01 T01490053  RH  053%=      5-min Rain = 0
KOD1 200500Z 14014KT 15/05 A2982 RMK A01 T01480053  RH  053%=      5-min Rain = 0
KOD1 200501Z 15015KT 15/05 A2982 RMK A01 T01480054  RH  053%=      5-min Rain = 0
KOD1 200502Z 15013KT 15/05 A2982 RMK A01 T01490054  RH  053%=      5-min Rain = 0
KOD1 200503Z 15013KT 15/05 A2982 RMK A01 T01480054  RH  053%=      5-min Rain = 0
KOD1 200504Z 15013KT 15/05 A2982 RMK A01 T01470054  RH  053%=      5-min Rain = 0
KOD1 200505Z 14013KT 15/05 A2982 RMK A01 T01470054  RH  053%=      5-min Rain = 0
KOD1 200506Z 14013KT 15/05 A2982 RMK A01 T01470054  RH  054%=      5-min Rain = 0
KOD1 200507Z 15014KT 15/05 A2982 RMK A01 T01480054  RH  053%=      5-min Rain = 0
KOD1 200508Z 15013KT 15/05 A2982 RMK A01 T01480054  RH  053%=      5-min Rain = 0
KOD1 200509Z 14013KT 15/05 A2982 RMK A01 T01470054  RH  054%=      5-min Rain = 0
KOD1 200510Z 15013KT 15/06 A2982 RMK A01 T01470055  RH  054%=      5-min Rain = 0
KOD1 200511Z 15014KT 15/06 A2982 RMK A01 T01470055  RH  054%=      5-min Rain = 0
KOD1 200512Z 15013KT 15/06 A2982 RMK A01 T01480055  RH  054%=      5-min Rain = 0
KOD1 200513Z 15014KT 15/06 A2982 RMK A01 T01470055  RH  054%=      5-min Rain = 0
KOD1 200514Z 15014KT 15/06 A2982 RMK A01 T01480055  RH  054%=      5-min Rain = 0
KOD1 200515Z 15014KT 15/06 A2982 RMK A01 T01480055  RH  054%=      5-min Rain = 0
KOD1 200516Z 15013KT 15/06 A2982 RMK A01 T01480055  RH  054%=      5-min Rain = 0
KOD1 200517Z 15015KT 15/06 A2982 RMK A01 T01480055  RH  054%=      5-min Rain = 0
KOD1 200518Z 15014KT 15/06 A2982 RMK A01 T01490055  RH  054%=      5-min Rain = 0
KOD1 200519Z 15014KT 15/06 A2982 RMK A01 T01480055  RH  054%=      5-min Rain = 0
KOD1 200520Z 15014KT 15/06 A2982 RMK A01 T01470055  RH  054%=      5-min Rain = 0
KOD1 200521Z 15014KT 15/06 A2982 RMK A01 T01470055  RH  054%=      5-min Rain = 0
KOD1 200522Z 15014KT 15/06 A2982 RMK A01 T01470055  RH  054%=      5-min Rain = 0
KOD1 200523Z 14013KT 15/06 A2982 RMK A01 T01460055  RH  055%=      5-min Rain = 0
KOD1 200524Z 14014KT 15/06 A2982 RMK A01 T01450055  RH  055%=      5-min Rain = 0
KOD1 200525Z 15014KT 15/06 A2982 RMK A01 T01460056  RH  055%=      5-min Rain = 0
KOD1 200526Z 14014KT 15/06 A2982 RMK A01 T01460056  RH  055%=      5-min Rain = 0
KOD1 200527Z 14013KT 15/06 A2982 RMK A01 T01460056  RH  055%=      5-min Rain = 0
KOD1 200528Z 14013KT 15/06 A2982 RMK A01 T01450056  RH  055%=      5-min Rain = 0
KOD1 200529Z 14013KT 15/06 A2982 RMK A01 T01450056  RH  055%=      5-min Rain = 0
KOD1 200530Z 14014KT 15/06 A2982 RMK A01 T01450056  RH  055%=      5-min Rain = 0
KOD1 200531Z 14014KT 15/06 A2982 RMK A01 T01450056  RH  055%=      5-min Rain = 0
KOD1 200532Z 14013KT 15/06 A2982 RMK A01 T01450056  RH  055%=      5-min Rain = 0
KOD1 200533Z 14013KT 15/06 A2982 RMK A01 T01450057  RH  055%=      5-min Rain = 0
KOD1 200534Z 14012KT 15/06 A2982 RMK A01 T01450057  RH  056%=      5-min Rain = 0
KOD1 200535Z 14013KT 14/06 A2982 RMK A01 T01440057  RH  056%=      5-min Rain = 0
KOD1 200536Z 14014KT 15/06 A2982 RMK A01 T01450057  RH  056%=      5-min Rain = 0
KOD1 200537Z 14014KT 15/06 A2982 RMK A01 T01460058  RH  056%=      5-min Rain = 0
KOD1 200538Z 14014KT 15/06 A2982 RMK A01 T01460058  RH  056%=      5-min Rain = 0
KOD1 200539Z 14013KT 15/06 A2982 RMK A01 T01460058  RH  056%=      5-min Rain = 0
KOD1 200540Z 14013KT 15/06 A2982 RMK A01 T01450058  RH  056%=      5-min Rain = 0
KOD1 200541Z 14013KT 15/06 A2982 RMK A01 T01450058  RH  056%=      5-min Rain = 0
KOD1 200542Z 14013KT 15/06 A2982 RMK A01 T01450058  RH  056%=      5-min Rain = 0
KOD1 200543Z 14013KT 14/06 A2982 RMK A01 T01440058  RH  056%=      5-min Rain = 0
KOD1 200544Z 14012KT 14/06 A2982 RMK A01 T01440058  RH  056%=      5-min Rain = 0
KOD1 200545Z 14014KT 14/06 A2982 RMK A01 T01430058  RH  057%=      5-min Rain = 0
KOD1 200546Z 14012KT 14/06 A2982 RMK A01 T01420058  RH  057%=      5-min Rain = 0
KOD1 200547Z 14012KT 14/06 A2982 RMK A01 T01410058  RH  057%=      5-min Rain = 0
KOD1 200548Z 14013KT 14/06 A2982 RMK A01 T01400058  RH  058%=      5-min Rain = 0
KOD1 200549Z 14013KT 14/06 A2982 RMK A01 T01400058  RH  058%=      5-min Rain = 0
KOD1 200550Z 14013KT 14/06 A2982 RMK A01 T01400059  RH  058%=      5-min Rain = 0
KOD1 200551Z 14013KT 14/06 A2982 RMK A01 T01400059  RH  058%=      5-min Rain = 0
KOD1 200552Z 14013KT 14/06 A2982 RMK A01 T01400059  RH  058%=      5-min Rain = 0
KOD1 200553Z 14013KT 14/06 A2982 RMK A01 T01410060  RH  058%=      5-min Rain = 0
KOD1 200554Z 14012KT 14/06 A2982 RMK A01 T01410060  RH  058%=      5-min Rain = 0
KOD1 200555Z 14014KT 14/06 A2982 RMK A01 T01410060  RH  058%=      5-min Rain = 0
KOD1 200556Z 14014KT 14/06 A2982 RMK A01 T01400060  RH  058%=      5-min Rain = 0
KOD1 200557Z 14013KT 14/06 A2982 RMK A01 T01410060  RH  058%=      5-min Rain = 0
KOD1 200558Z 14013KT 14/06 A2982 RMK A01 T01400060  RH  059%=      5-min Rain = 0
KOD1 200559Z 14012KT 14/06 A2982 RMK A01 T01400060  RH  059%=      5-min Rain = 0

Page generated in 0.1305 seconds.